| time (UTC) | temp F | wind direction | speed MPH | gust MPH | rain 1hr in | rain 24hr in | rain mn in | humidity % | barometer mb |
| 20260509005822 | 68 | 50 | 4.0 | 8.0 | 0.00 | 0.00 | 0.00 | 36 | 1015.9 |
| 20260509005759 | 68 | 53 | 3.0 | 8.0 | 0.00 | 0.00 | 0.00 | 35 | 1016.0 |
| 20260509005445 | 69 | 106 | 3.0 | 8.0 | 0.00 | 0.00 | 0.00 | 35 | 1015.9 |
| 20260509005339 | 69 | 106 | 3.0 | 8.0 | 0.00 | 0.00 | 0.00 | 35 | 1015.9 |
| 20260509005322 | 69 | 113 | 3.0 | 8.0 | 0.00 | 0.00 | 0.00 | 35 | 1015.9 |
| 20260509005239 | 69 | 131 | 3.0 | 8.0 | 0.00 | 0.00 | 0.00 | 36 | 1015.9 |
| 20260509005144 | 69 | 118 | 3.0 | 8.0 | 0.00 | 0.00 | 0.00 | 35 | 1015.9 |
| 20260509004936 | 69 | 112 | 3.0 | 7.0 | 0.00 | 0.00 | 0.00 | 35 | 1015.9 |
| 20260509004835 | 69 | 155 | 3.0 | 9.0 | 0.00 | 0.00 | 0.00 | 36 | 1015.9 |
| 20260509004823 | 69 | 138 | 3.0 | 9.0 | 0.00 | 0.00 | 0.00 | 36 | 1015.9 |
| 20260509004741 | 69 | 117 | 4.0 | 9.0 | 0.00 | 0.00 | 0.00 | 35 | 1015.9 |
| 20260509004543 | 69 | 114 | 5.0 | 9.0 | 0.00 | 0.00 | 0.00 | 34 | 1015.9 |
| 20260509004536 | 69 | 104 | 5.0 | 11.0 | 0.00 | 0.00 | 0.00 | 35 | 1016.0 |
| 20260509004222 | 70 | 67 | 5.0 | 11.0 | 0.00 | 0.00 | 0.00 | 34 | 1016.0 |
| 20260509004131 | 70 | 78 | 5.0 | 11.0 | 0.00 | 0.00 | 0.00 | 33 | 1016.0 |
| 20260509003922 | 70 | 85 | 4.0 | 11.0 | 0.00 | 0.00 | 0.00 | 33 | 1015.9 |
| 20260509003824 | 71 | 111 | 3.0 | 11.0 | 0.00 | 0.00 | 0.00 | 33 | 1015.9 |
| 20260509003819 | 71 | 123 | 3.0 | 11.0 | 0.00 | 0.00 | 0.00 | 33 | 1015.9 |
| 20260509003725 | 71 | 90 | 3.0 | 11.0 | 0.00 | 0.00 | 0.00 | 33 | 1015.9 |
| 20260509003523 | 71 | 132 | 1.0 | 10.0 | 0.00 | 0.00 | 0.00 | 34 | 1015.9 |
| 20260509003318 | 71 | 121 | 1.0 | 8.0 | 0.00 | 0.00 | 0.00 | 33 | 1015.9 |
| 20260509003309 | 72 | 111 | 1.0 | 8.0 | 0.00 | 0.00 | 0.00 | 33 | 1015.9 |
| 20260509003209 | 71 | 200 | 0.0 | 4.0 | 0.00 | 0.00 | 0.00 | 34 | 1015.9 |
| 20260509003109 | 71 | 126 | 0.0 | 3.0 | 0.00 | 0.00 | 0.00 | 34 | 1015.9 |
| 20260509003009 | 71 | 125 | 0.0 | 2.0 | 0.00 | 0.00 | 0.00 | 34 | 1015.9 |
| 20260509002908 | 71 | 126 | 0.0 | 2.0 | 0.00 | 0.00 | 0.00 | 35 | 1015.9 |
| 20260509002806 | 71 | 126 | 0.0 | 2.0 | 0.00 | 0.00 | 0.00 | 35 | 1015.9 |
| 20260509002704 | 70 | 126 | 1.0 | 3.0 | 0.00 | 0.00 | 0.00 | 34 | 1016.0 |
| 20260509002603 | 70 | 126 | 1.0 | 3.0 | 0.00 | 0.00 | 0.00 | 34 | 1016.0 |
| 20260509002503 | 70 | 126 | 1.0 | 3.0 | 0.00 | 0.00 | 0.00 | 36 | 1016.0 |
| 20260509002400 | 70 | 126 | 1.0 | 4.0 | 0.00 | 0.00 | 0.00 | 37 | 1015.9 |
| 20260509002320 | 70 | 126 | 1.0 | 4.0 | 0.00 | 0.00 | 0.00 | 35 | 1016.0 |
| 20260509002306 | 70 | 126 | 1.0 | 4.0 | 0.00 | 0.00 | 0.00 | 35 | 1016.0 |
| 20260509002055 | 70 | 126 | 2.0 | 4.0 | 0.00 | 0.00 | 0.00 | 35 | 1015.9 |
| 20260509001955 | 69 | 126 | 2.0 | 4.0 | 0.00 | 0.00 | 0.00 | 35 | 1015.9 |
| 20260509001924 | 69 | 126 | 2.0 | 4.0 | 0.00 | 0.00 | 0.00 | 35 | 1016.0 |
| 20260509001749 | 69 | 126 | 2.0 | 4.0 | 0.00 | 0.00 | 0.00 | 35 | 1016.0 |
| 20260509001648 | 69 | 125 | 2.0 | 4.0 | 0.00 | 0.00 | 0.00 | 35 | 1016.0 |
| 20260509001546 | 69 | 126 | 2.0 | 4.0 | 0.00 | 0.00 | 0.00 | 35 | 1015.9 |
| 20260509001453 | 69 | 42 | 2.0 | 4.0 | 0.00 | 0.00 | 0.00 | 35 | 1015.9 |
| 20260509001317 | 69 | 42 | 2.0 | 9.0 | 0.00 | 0.00 | 0.00 | 35 | 1015.9 |
| 20260509001245 | 69 | 42 | 2.0 | 9.0 | 0.00 | 0.00 | 0.00 | 35 | 1016.0 |
| 20260509001145 | 69 | 42 | 2.0 | 9.0 | 0.00 | 0.00 | 0.00 | 35 | 1015.9 |
| 20260509001045 | 69 | 42 | 2.0 | 9.0 | 0.00 | 0.00 | 0.00 | 36 | 1015.9 |
| 20260509000943 | 69 | 42 | 2.0 | 9.0 | 0.00 | 0.00 | 0.00 | 36 | 1016.0 |
| 20260509000844 | 69 | 42 | 3.0 | 9.0 | 0.00 | 0.00 | 0.00 | 36 | 1016.0 |
| 20260509000644 | 69 | 42 | 3.0 | 9.0 | 0.00 | 0.00 | 0.00 | 35 | 1016.0 |
| 20260509000456 | 69 | 148 | 3.0 | 9.0 | 0.00 | 0.00 | 0.00 | 35 | 1016.0 |
| 20260509000341 | 69 | 126 | 3.0 | 6.0 | 0.00 | 0.00 | 0.00 | 35 | 1015.9 |
| 20260509000029 | 69 | 137 | 3.0 | 6.0 | 0.00 | 0.00 | 0.00 | 36 | 1016.0 |
| 20260508235930 | 69 | 171 | 3.0 | 6.0 | 0.00 | 0.00 | 0.00 | 35 | 1016.0 |
| 20260508235826 | 69 | 175 | 2.0 | 6.0 | 0.00 | 0.00 | 0.00 | 35 | 1016.0 |
| 20260508235813 | 69 | 174 | 2.0 | 5.0 | 0.00 | 0.00 | 0.00 | 35 | 1016.0 |
| 20260508235720 | 69 | 134 | 2.0 | 5.0 | 0.00 | 0.00 | 0.00 | 35 | 1015.9 |
| 20260508235621 | 69 | 158 | 3.0 | 5.0 | 0.00 | 0.00 | 0.00 | 36 | 1016.0 |
| 20260508235521 | 69 | 157 | 2.0 | 4.0 | 0.00 | 0.00 | 0.00 | 35 | 1016.0 |
| 20260508235421 | 69 | 91 | 2.0 | 4.0 | 0.00 | 0.00 | 0.00 | 36 | 1016.0 |
| 20260508235321 | 69 | 96 | 3.0 | 6.0 | 0.00 | 0.00 | 0.00 | 35 | 1015.9 |
| 20260508235310 | 69 | 115 | 3.0 | 6.0 | 0.00 | 0.00 | 0.00 | 35 | 1015.9 |
| 20260508235218 | 69 | 35 | 3.0 | 6.0 | 0.00 | 0.00 | 0.00 | 34 | 1016.0 |
| 20260508235115 | 69 | 35 | 3.0 | 6.0 | 0.00 | 0.00 | 0.00 | 34 | 1016.0 |
| 20260508235015 | 69 | 35 | 3.0 | 6.0 | 0.00 | 0.00 | 0.00 | 34 | 1016.0 |
| 20260508234912 | 69 | 89 | 2.0 | 6.0 | 0.00 | 0.00 | 0.00 | 34 | 1016.0 |
| 20260508234812 | 70 | 72 | 2.0 | 6.0 | 0.00 | 0.00 | 0.00 | 33 | 1016.0 |
| 20260508234723 | 70 | 76 | 2.0 | 6.0 | 0.00 | 0.00 | 0.00 | 33 | 1016.0 |
| 20260508234409 | 71 | 93 | 2.0 | 6.0 | 0.00 | 0.00 | 0.00 | 33 | 1016.0 |
| 20260508234306 | 71 | 51 | 2.0 | 6.0 | 0.00 | 0.00 | 0.00 | 33 | 1016.0 |
| 20260508234201 | 71 | 56 | 2.0 | 6.0 | 0.00 | 0.00 | 0.00 | 34 | 1016.0 |
| 20260508234100 | 71 | 56 | 2.0 | 6.0 | 0.00 | 0.00 | 0.00 | 34 | 1016.0 |
| 20260508234001 | 71 | 157 | 2.0 | 6.0 | 0.00 | 0.00 | 0.00 | 33 | 1016.0 |
| 20260508233901 | 71 | 157 | 2.0 | 6.0 | 0.00 | 0.00 | 0.00 | 33 | 1016.0 |
| 20260508233800 | 71 | 157 | 2.0 | 7.0 | 0.00 | 0.00 | 0.00 | 35 | 1016.0 |
| 20260508233655 | 71 | 180 | 2.0 | 7.0 | 0.00 | 0.00 | 0.00 | 34 | 1016.0 |
| 20260508233555 | 71 | 154 | 2.0 | 7.0 | 0.00 | 0.00 | 0.00 | 34 | 1016.0 |
| 20260508233454 | 71 | 121 | 2.0 | 7.0 | 0.00 | 0.00 | 0.00 | 35 | 1016.0 |
| 20260508233355 | 71 | 117 | 3.0 | 7.0 | 0.00 | 0.00 | 0.00 | 34 | 1016.0 |
| 20260508233255 | 71 | 96 | 3.0 | 8.0 | 0.00 | 0.00 | 0.00 | 35 | 1016.0 |
| 20260508233148 | 71 | 96 | 3.0 | 8.0 | 0.00 | 0.00 | 0.00 | 34 | 1016.0 |
| 20260508233048 | 71 | 96 | 4.0 | 8.0 | 0.00 | 0.00 | 0.00 | 33 | 1016.1 |
| 20260508232956 | 71 | 96 | 4.0 | 8.0 | 0.00 | 0.00 | 0.00 | 34 | 1016.1 |
| 20260508232749 | 71 | 237 | 3.0 | 8.0 | 0.00 | 0.00 | 0.00 | 34 | 1016.1 |
| 20260508232658 | 71 | 229 | 3.0 | 8.0 | 0.00 | 0.00 | 0.00 | 34 | 1016.1 |
| 20260508232342 | 71 | 151 | 3.0 | 8.0 | 0.00 | 0.00 | 0.00 | 34 | 1016.1 |
| 20260508232243 | 71 | 128 | 3.0 | 7.0 | 0.00 | 0.00 | 0.00 | 34 | 1016.0 |
| 20260508232148 | 71 | 136 | 3.0 | 7.0 | 0.00 | 0.00 | 0.00 | 34 | 1016.1 |
| 20260508231942 | 71 | 104 | 3.0 | 7.0 | 0.00 | 0.00 | 0.00 | 34 | 1016.0 |
| 20260508231839 | 71 | 28 | 3.0 | 7.0 | 0.00 | 0.00 | 0.00 | 34 | 1016.0 |
| 20260508231736 | 71 | 78 | 3.0 | 7.0 | 0.00 | 0.00 | 0.00 | 34 | 1016.0 |
| 20260508231638 | 71 | 78 | 3.0 | 7.0 | 0.00 | 0.00 | 0.00 | 34 | 1016.0 |
| 20260508231431 | 71 | 35 | 3.0 | 7.0 | 0.00 | 0.00 | 0.00 | 34 | 1016.0 |
| 20260508231341 | 71 | 59 | 3.0 | 7.0 | 0.00 | 0.00 | 0.00 | 34 | 1016.0 |
| 20260508231230 | 71 | 331 | 3.0 | 7.0 | 0.00 | 0.00 | 0.00 | 34 | 1016.0 |
| 20260508231127 | 71 | 61 | 3.0 | 7.0 | 0.00 | 0.00 | 0.00 | 34 | 1016.0 |
| 20260508231027 | 71 | 74 | 3.0 | 7.0 | 0.00 | 0.00 | 0.00 | 34 | 1015.9 |
| 20260508230927 | 71 | 91 | 3.0 | 7.0 | 0.00 | 0.00 | 0.00 | 34 | 1016.0 |
| 20260508230828 | 71 | 55 | 3.0 | 7.0 | 0.00 | 0.00 | 0.00 | 35 | 1016.0 |
| 20260508230724 | 71 | 88 | 3.0 | 7.0 | 0.00 | 0.00 | 0.00 | 35 | 1016.0 |
| 20260508230626 | 70 | 95 | 3.0 | 6.0 | 0.00 | 0.00 | 0.00 | 34 | 1016.0 |
| 20260508230419 | 70 | 50 | 3.0 | 6.0 | 0.00 | 0.00 | 0.00 | 34 | 1016.0 |
| 20260508230319 | 70 | 24 | 3.0 | 8.0 | 0.00 | 0.00 | 0.00 | 33 | 1016.0 |
| 20260508230222 | 70 | 24 | 3.0 | 9.0 | 0.00 | 0.00 | 0.00 | 34 | 1016.0 |
| 20260508230015 | 70 | 34 | 4.0 | 9.0 | 0.00 | 0.00 | 0.00 | 34 | 1016.0 |
| 20260508225922 | 70 | 36 | 3.0 | 9.0 | 0.00 | 0.00 | 0.00 | 35 | 1016.1 |
| 20260508225712 | 70 | 316 | 4.0 | 10.0 | 0.00 | 0.00 | 0.00 | 35 | 1016.0 |
| 20260508225609 | 70 | 90 | 4.0 | 10.0 | 0.00 | 0.00 | 0.00 | 34 | 1016.1 |
| 20260508225507 | 70 | 90 | 4.0 | 10.0 | 0.00 | 0.00 | 0.00 | 34 | 1016.0 |
| 20260508225407 | 70 | 90 | 4.0 | 10.0 | 0.00 | 0.00 | 0.00 | 34 | 1016.1 |
| 20260508225307 | 70 | 47 | 4.0 | 10.0 | 0.00 | 0.00 | 0.00 | 34 | 1016.0 |
| 20260508225206 | 70 | 48 | 5.0 | 12.0 | 0.00 | 0.00 | 0.00 | 34 | 1016.1 |
| 20260508225101 | 70 | 11 | 5.0 | 12.0 | 0.00 | 0.00 | 0.00 | 34 | 1016.1 |
| 20260508225001 | 71 | 47 | 5.0 | 12.0 | 0.00 | 0.00 | 0.00 | 34 | 1016.1 |
| 20260508224901 | 71 | 44 | 5.0 | 12.0 | 0.00 | 0.00 | 0.00 | 34 | 1016.1 |
| 20260508224801 | 71 | 67 | 5.0 | 12.0 | 0.00 | 0.00 | 0.00 | 35 | 1016.1 |
| 20260508224700 | 71 | 5 | 5.0 | 12.0 | 0.00 | 0.00 | 0.00 | 36 | 1016.0 |
| 20260508224554 | 71 | 327 | 5.0 | 12.0 | 0.00 | 0.00 | 0.00 | 36 | 1016.0 |
| 20260508224454 | 71 | 5 | 5.0 | 12.0 | 0.00 | 0.00 | 0.00 | 35 | 1016.0 |
| 20260508224355 | 71 | 348 | 4.0 | 12.0 | 0.00 | 0.00 | 0.00 | 34 | 1016.0 |
| 20260508224255 | 71 | 30 | 4.0 | 12.0 | 0.00 | 0.00 | 0.00 | 34 | 1016.0 |
| 20260508224154 | 71 | 61 | 4.0 | 12.0 | 0.00 | 0.00 | 0.00 | 34 | 1016.1 |
| 20260508224049 | 71 | 68 | 4.0 | 12.0 | 0.00 | 0.00 | 0.00 | 35 | 1016.0 |
| 20260508223949 | 71 | 73 | 4.0 | 9.0 | 0.00 | 0.00 | 0.00 | 35 | 1016.0 |
| 20260508223849 | 71 | 63 | 4.0 | 9.0 | 0.00 | 0.00 | 0.00 | 36 | 1016.1 |
| 20260508223748 | 70 | 42 | 4.0 | 9.0 | 0.00 | 0.00 | 0.00 | 35 | 1016.1 |
| 20260508223649 | 70 | 32 | 5.0 | 9.0 | 0.00 | 0.00 | 0.00 | 34 | 1016.0 |
| 20260508223546 | 70 | 121 | 5.0 | 9.0 | 0.00 | 0.00 | 0.00 | 35 | 1016.1 |
| 20260508223447 | 70 | 121 | 6.0 | 12.0 | 0.00 | 0.00 | 0.00 | 35 | 1016.1 |
| 20260508223345 | 70 | 98 | 6.0 | 12.0 | 0.00 | 0.00 | 0.00 | 35 | 1016.1 |
| 20260508223254 | 70 | 97 | 6.0 | 12.0 | 0.00 | 0.00 | 0.00 | 35 | 1016.1 |
| 20260508223142 | 70 | 84 | 6.0 | 12.0 | 0.00 | 0.00 | 0.00 | 35 | 1016.1 |
| 20260508223037 | 70 | 55 | 6.0 | 12.0 | 0.00 | 0.00 | 0.00 | 37 | 1016.1 |
| 20260508222937 | 70 | 39 | 6.0 | 12.0 | 0.00 | 0.00 | 0.00 | 36 | 1016.1 |
| 20260508222837 | 70 | 28 | 6.0 | 12.0 | 0.00 | 0.00 | 0.00 | 36 | 1016.1 |
| 20260508222747 | 70 | 28 | 6.0 | 12.0 | 0.00 | 0.00 | 0.00 | 35 | 1016.1 |
| 20260508222740 | 69 | 51 | 5.0 | 12.0 | 0.00 | 0.00 | 0.00 | 35 | 1016.1 |
| 20260508222532 | 69 | 55 | 5.0 | 12.0 | 0.00 | 0.00 | 0.00 | 37 | 1016.1 |
| 20260508222433 | 69 | 55 | 5.0 | 11.0 | 0.00 | 0.00 | 0.00 | 36 | 1016.1 |
| 20260508222334 | 69 | 61 | 4.0 | 11.0 | 0.00 | 0.00 | 0.00 | 36 | 1016.1 |
| 20260508222241 | 69 | 55 | 4.0 | 11.0 | 0.00 | 0.00 | 0.00 | 36 | 1016.1 |
| 20260508222234 | 69 | 63 | 4.0 | 9.0 | 0.00 | 0.00 | 0.00 | 36 | 1016.2 |
| 20260508222029 | 69 | 44 | 4.0 | 8.0 | 0.00 | 0.00 | 0.00 | 35 | 1016.2 |
| 20260508221929 | 69 | 39 | 4.0 | 10.0 | 0.00 | 0.00 | 0.00 | 35 | 1016.2 |
| 20260508221829 | 69 | 56 | 5.0 | 10.0 | 0.00 | 0.00 | 0.00 | 35 | 1016.2 |
| 20260508221728 | 69 | 46 | 5.0 | 10.0 | 0.00 | 0.00 | 0.00 | 36 | 1016.2 |
| 20260508221624 | 69 | 115 | 5.0 | 10.0 | 0.00 | 0.00 | 0.00 | 35 | 1016.2 |
| 20260508221521 | 69 | 75 | 6.0 | 12.0 | 0.00 | 0.00 | 0.00 | 34 | 1016.2 |
| 20260508221428 | 69 | 64 | 6.0 | 12.0 | 0.00 | 0.00 | 0.00 | 35 | 1016.2 |
| 20260508221228 | 69 | 59 | 6.0 | 12.0 | 0.00 | 0.00 | 0.00 | 35 | 1016.2 |
| 20260508221117 | 69 | 86 | 6.0 | 12.0 | 0.00 | 0.00 | 0.00 | 35 | 1016.2 |
| 20260508221014 | 69 | 84 | 7.0 | 12.0 | 0.00 | 0.00 | 0.00 | 35 | 1016.4 |
| 20260508220918 | 69 | 94 | 6.0 | 13.0 | 0.00 | 0.00 | 0.00 | 35 | 1016.2 |
| 20260508220711 | 70 | 27 | 6.0 | 13.0 | 0.00 | 0.00 | 0.00 | 35 | 1016.2 |
| 20260508220610 | 70 | 27 | 6.0 | 13.0 | 0.00 | 0.00 | 0.00 | 36 | 1016.2 |
| 20260508220504 | 70 | 32 | 5.0 | 13.0 | 0.00 | 0.00 | 0.00 | 35 | 1016.4 |
| 20260508220404 | 70 | 23 | 5.0 | 13.0 | 0.00 | 0.00 | 0.00 | 35 | 1016.2 |
| 20260508220305 | 70 | 40 | 5.0 | 13.0 | 0.00 | 0.00 | 0.00 | 35 | 1016.4 |
| 20260508220205 | 70 | 40 | 5.0 | 13.0 | 0.00 | 0.00 | 0.00 | 36 | 1016.4 |
| 20260508220105 | 71 | 82 | 5.0 | 13.0 | 0.00 | 0.00 | 0.00 | 36 | 1016.4 |
| 20260508215959 | 71 | 48 | 5.0 | 13.0 | 0.00 | 0.00 | 0.00 | 37 | 1016.4 |
| 20260508215859 | 70 | 336 | 5.0 | 9.0 | 0.00 | 0.00 | 0.00 | 37 | 1016.5 |
| 20260508215759 | 70 | 15 | 4.0 | 9.0 | 0.00 | 0.00 | 0.00 | 36 | 1016.5 |
| 20260508215658 | 70 | 47 | 4.0 | 9.0 | 0.00 | 0.00 | 0.00 | 37 | 1016.5 |
| 20260508215600 | 70 | 51 | 4.0 | 9.0 | 0.00 | 0.00 | 0.00 | 38 | 1016.4 |
| 20260508215353 | 70 | 36 | 4.0 | 10.0 | 0.00 | 0.00 | 0.00 | 38 | 1016.5 |
| 20260508215252 | 70 | 17 | 4.0 | 10.0 | 0.00 | 0.00 | 0.00 | 38 | 1016.5 |
| 20260508215153 | 70 | 305 | 5.0 | 10.0 | 0.00 | 0.00 | 0.00 | 37 | 1016.5 |
| 20260508215053 | 69 | 355 | 4.0 | 10.0 | 0.00 | 0.00 | 0.00 | 38 | 1016.5 |
| 20260508214947 | 69 | 23 | 4.0 | 10.0 | 0.00 | 0.00 | 0.00 | 38 | 1016.5 |
| 20260508214847 | 69 | 20 | 4.0 | 10.0 | 0.00 | 0.00 | 0.00 | 36 | 1016.5 |
| 20260508214746 | 69 | 84 | 5.0 | 12.0 | 0.00 | 0.00 | 0.00 | 37 | 1016.5 |
| 20260508214648 | 69 | 57 | 5.0 | 12.0 | 0.00 | 0.00 | 0.00 | 37 | 1016.5 |
| 20260508214546 | 69 | 51 | 6.0 | 12.0 | 0.00 | 0.00 | 0.00 | 36 | 1016.5 |
| 20260508214443 | 69 | 47 | 6.0 | 12.0 | 0.00 | 0.00 | 0.00 | 37 | 1016.6 |
| 20260508214341 | 69 | 49 | 5.0 | 12.0 | 0.00 | 0.00 | 0.00 | 36 | 1016.6 |
| 20260508214241 | 69 | 61 | 5.0 | 12.0 | 0.00 | 0.00 | 0.00 | 36 | 1016.6 |
| 20260508214152 | 69 | 103 | 5.0 | 12.0 | 0.00 | 0.00 | 0.00 | 35 | 1016.7 |
| 20260508214040 | 70 | 109 | 5.0 | 12.0 | 0.00 | 0.00 | 0.00 | 35 | 1016.7 |
| 20260508213935 | 70 | 80 | 5.0 | 12.0 | 0.00 | 0.00 | 0.00 | 35 | 1016.6 |
| 20260508213836 | 70 | 99 | 5.0 | 12.0 | 0.00 | 0.00 | 0.00 | 36 | 1016.7 |
| 20260508213735 | 70 | 110 | 4.0 | 11.0 | 0.00 | 0.00 | 0.00 | 35 | 1016.7 |
| 20260508213635 | 70 | 96 | 4.0 | 10.0 | 0.00 | 0.00 | 0.00 | 35 | 1016.7 |
| 20260508213534 | 70 | 104 | 4.0 | 10.0 | 0.00 | 0.00 | 0.00 | 35 | 1016.7 |
| 20260508213430 | 70 | 121 | 5.0 | 12.0 | 0.00 | 0.00 | 0.00 | 35 | 1016.7 |
| 20260508213329 | 70 | 107 | 5.0 | 12.0 | 0.00 | 0.00 | 0.00 | 37 | 1016.7 |
| 20260508213230 | 70 | 137 | 5.0 | 12.0 | 0.00 | 0.00 | 0.00 | 36 | 1016.7 |
| 20260508213128 | 70 | 136 | 5.0 | 12.0 | 0.00 | 0.00 | 0.00 | 36 | 1016.6 |
| 20260508213028 | 70 | 102 | 5.0 | 12.0 | 0.00 | 0.00 | 0.00 | 37 | 1016.7 |
| 20260508212924 | 70 | 184 | 5.0 | 12.0 | 0.00 | 0.00 | 0.00 | 35 | 1016.7 |
| 20260508212823 | 71 | 67 | 5.0 | 12.0 | 0.00 | 0.00 | 0.00 | 35 | 1016.6 |
| 20260508212729 | 71 | 49 | 5.0 | 12.0 | 0.00 | 0.00 | 0.00 | 36 | 1016.6 |
| 20260508212522 | 71 | 113 | 4.0 | 12.0 | 0.00 | 0.00 | 0.00 | 36 | 1016.7 |
| 20260508212419 | 71 | 78 | 3.0 | 10.0 | 0.00 | 0.00 | 0.00 | 36 | 1016.7 |
| 20260508212319 | 71 | 96 | 3.0 | 8.0 | 0.00 | 0.00 | 0.00 | 36 | 1016.7 |
| 20260508212217 | 70 | 122 | 3.0 | 8.0 | 0.00 | 0.00 | 0.00 | 38 | 1016.7 |
| 20260508212128 | 70 | 130 | 3.0 | 8.0 | 0.00 | 0.00 | 0.00 | 37 | 1016.8 |
| 20260508212121 | 70 | 84 | 3.0 | 11.0 | 0.00 | 0.00 | 0.00 | 37 | 1016.7 |
| 20260508211916 | 70 | 119 | 3.0 | 11.0 | 0.00 | 0.00 | 0.00 | 36 | 1016.8 |
| 20260508211820 | 70 | 119 | 3.0 | 11.0 | 0.00 | 0.00 | 0.00 | 37 | 1016.8 |
| 20260508211613 | 70 | 119 | 3.0 | 11.0 | 0.00 | 0.00 | 0.00 | 37 | 1017.0 |
| 20260508211510 | 70 | 142 | 3.0 | 11.0 | 0.00 | 0.00 | 0.00 | 37 | 1016.8 |
| 20260508211407 | 70 | 142 | 3.0 | 11.0 | 0.00 | 0.00 | 0.00 | 37 | 1016.8 |
| 20260508211304 | 69 | 144 | 4.0 | 11.0 | 0.00 | 0.00 | 0.00 | 38 | 1016.8 |
| 20260508211211 | 69 | 63 | 4.0 | 11.0 | 0.00 | 0.00 | 0.00 | 37 | 1017.0 |
| 20260508211005 | 69 | 90 | 3.0 | 10.0 | 0.00 | 0.00 | 0.00 | 39 | 1016.8 |
| 20260508210915 | 69 | 104 | 3.0 | 10.0 | 0.00 | 0.00 | 0.00 | 39 | 1017.0 |
| 20260508210611 | 69 | 60 | 3.0 | 10.0 | 0.00 | 0.00 | 0.00 | 37 | 1017.0 |
| 20260508210459 | 69 | 60 | 4.0 | 10.0 | 0.00 | 0.00 | 0.00 | 37 | 1017.0 |
| 20260508210355 | 69 | 56 | 4.0 | 10.0 | 0.00 | 0.00 | 0.00 | 38 | 1017.0 |
| 20260508210254 | 69 | 59 | 4.0 | 10.0 | 0.00 | 0.00 | 0.00 | 38 | 1017.0 |
| 20260508210155 | 69 | 9 | 4.0 | 10.0 | 0.00 | 0.00 | 0.00 | 37 | 1017.0 |
| 20260508210054 | 69 | 9 | 4.0 | 10.0 | 0.00 | 0.00 | 0.00 | 36 | 1017.1 |
| 20260508205952 | 69 | 51 | 4.0 | 10.0 | 0.00 | 0.00 | 0.00 | 38 | 1017.1 |
| 20260508205849 | 69 | 28 | 4.0 | 10.0 | 0.00 | 0.00 | 0.00 | 37 | 1017.1 |
| 20260508205747 | 69 | 40 | 3.0 | 9.0 | 0.00 | 0.00 | 0.00 | 38 | 1017.1 |
| 20260508205647 | 69 | 40 | 3.0 | 9.0 | 0.00 | 0.00 | 0.00 | 37 | 1017.1 |
| 20260508205547 | 69 | 87 | 3.0 | 9.0 | 0.00 | 0.00 | 0.00 | 39 | 1017.1 |
| 20260508205446 | 69 | 108 | 3.0 | 9.0 | 0.00 | 0.00 | 0.00 | 40 | 1017.1 |
| 20260508205341 | 69 | 86 | 3.0 | 7.0 | 0.00 | 0.00 | 0.00 | 39 | 1017.1 |
| 20260508205240 | 69 | 142 | 3.0 | 7.0 | 0.00 | 0.00 | 0.00 | 39 | 1017.1 |
| 20260508205141 | 69 | 72 | 3.0 | 7.0 | 0.00 | 0.00 | 0.00 | 37 | 1017.1 |
| 20260508205041 | 69 | 83 | 3.0 | 7.0 | 0.00 | 0.00 | 0.00 | 37 | 1017.1 |
| 20260508204948 | 69 | 47 | 3.0 | 7.0 | 0.00 | 0.00 | 0.00 | 37 | 1017.1 |
| 20260508204635 | 68 | 63 | 4.0 | 10.0 | 0.00 | 0.00 | 0.00 | 37 | 1017.1 |
| 20260508204534 | 68 | 30 | 5.0 | 11.0 | 0.00 | 0.00 | 0.00 | 38 | 1017.2 |
| 20260508204434 | 68 | 325 | 5.0 | 11.0 | 0.00 | 0.00 | 0.00 | 41 | 1017.2 |
| 20260508204328 | 68 | 43 | 5.0 | 11.0 | 0.00 | 0.00 | 0.00 | 39 | 1017.2 |
| 20260508204228 | 68 | 82 | 5.0 | 11.0 | 0.00 | 0.00 | 0.00 | 39 | 1017.2 |
| 20260508204130 | 68 | 39 | 6.0 | 11.0 | 0.00 | 0.00 | 0.00 | 40 | 1017.2 |
| 20260508204029 | 68 | 29 | 6.0 | 13.0 | 0.00 | 0.00 | 0.00 | 39 | 1017.2 |
| 20260508203928 | 68 | 20 | 6.0 | 13.0 | 0.00 | 0.00 | 0.00 | 38 | 1017.2 |
| 20260508203824 | 68 | 61 | 6.0 | 13.0 | 0.00 | 0.00 | 0.00 | 39 | 1017.3 |
| 20260508203723 | 68 | 34 | 5.0 | 13.0 | 0.00 | 0.00 | 0.00 | 38 | 1017.2 |
| 20260508203623 | 68 | 26 | 5.0 | 13.0 | 0.00 | 0.00 | 0.00 | 38 | 1017.3 |
| 20260508203523 | 68 | 49 | 5.0 | 13.0 | 0.00 | 0.00 | 0.00 | 40 | 1017.3 |
| 20260508203424 | 68 | 22 | 5.0 | 13.0 | 0.00 | 0.00 | 0.00 | 37 | 1017.3 |
| 20260508203216 | 69 | 42 | 5.0 | 13.0 | 0.00 | 0.00 | 0.00 | 37 | 1017.3 |
| 20260508203116 | 69 | 46 | 4.0 | 13.0 | 0.00 | 0.00 | 0.00 | 39 | 1017.3 |
| 20260508203018 | 69 | 33 | 4.0 | 9.0 | 0.00 | 0.00 | 0.00 | 41 | 1017.3 |
| 20260508202917 | 69 | 69 | 4.0 | 8.0 | 0.00 | 0.00 | 0.00 | 41 | 1017.3 |
| 20260508202816 | 69 | 355 | 4.0 | 8.0 | 0.00 | 0.00 | 0.00 | 40 | 1017.3 |
| 20260508202715 | 69 | 85 | 5.0 | 13.0 | 0.00 | 0.00 | 0.00 | 41 | 1017.3 |
| 20260508202613 | 69 | 61 | 5.0 | 13.0 | 0.00 | 0.00 | 0.00 | 38 | 1017.3 |
| 20260508202513 | 69 | 41 | 6.0 | 13.0 | 0.00 | 0.00 | 0.00 | 37 | 1017.3 |
| 20260508202410 | 69 | 23 | 5.0 | 13.0 | 0.00 | 0.00 | 0.00 | 40 | 1017.3 |
| 20260508202312 | 68 | 71 | 5.0 | 13.0 | 0.00 | 0.00 | 0.00 | 42 | 1017.2 |
| 20260508202105 | 68 | 17 | 5.0 | 13.0 | 0.00 | 0.00 | 0.00 | 39 | 1017.3 |
| 20260508202006 | 68 | 334 | 5.0 | 13.0 | 0.00 | 0.00 | 0.00 | 40 | 1017.3 |
| 20260508201906 | 68 | 72 | 5.0 | 13.0 | 0.00 | 0.00 | 0.00 | 38 | 1017.3 |
| 20260508201659 | 68 | 34 | 4.0 | 12.0 | 0.00 | 0.00 | 0.00 | 38 | 1017.3 |
| 20260508201616 | 68 | 87 | 4.0 | 11.0 | 0.00 | 0.00 | 0.00 | 39 | 1017.4 |
| 20260508201502 | 68 | 258 | 3.0 | 10.0 | 0.00 | 0.00 | 0.00 | 40 | 1017.4 |
| 20260508201252 | 67 | 323 | 3.0 | 10.0 | 0.00 | 0.00 | 0.00 | 40 | 1017.4 |
| 20260508201152 | 68 | 28 | 4.0 | 10.0 | 0.00 | 0.00 | 0.00 | 38 | 1017.4 |
| 20260508201053 | 68 | 15 | 4.0 | 10.0 | 0.00 | 0.00 | 0.00 | 38 | 1017.5 |
| 20260508200953 | 68 | 78 | 3.0 | 10.0 | 0.00 | 0.00 | 0.00 | 38 | 1017.4 |
| 20260508200852 | 68 | 63 | 3.0 | 9.0 | 0.00 | 0.00 | 0.00 | 38 | 1017.5 |
| 20260508200747 | 68 | 53 | 3.0 | 8.0 | 0.00 | 0.00 | 0.00 | 38 | 1017.5 |
| 20260508200646 | 68 | 63 | 3.0 | 8.0 | 0.00 | 0.00 | 0.00 | 41 | 1017.5 |
| 20260508200546 | 68 | 90 | 3.0 | 10.0 | 0.00 | 0.00 | 0.00 | 41 | 1017.5 |
| 20260508200447 | 68 | 99 | 4.0 | 10.0 | 0.00 | 0.00 | 0.00 | 43 | 1017.5 |
| 20260508200347 | 67 | 22 | 4.0 | 10.0 | 0.00 | 0.00 | 0.00 | 42 | 1017.5 |
| 20260508200251 | 67 | 51 | 4.0 | 10.0 | 0.00 | 0.00 | 0.00 | 43 | 1017.5 |
| 20260508200044 | 67 | 33 | 4.0 | 10.0 | 0.00 | 0.00 | 0.00 | 41 | 1017.7 |
| 20260508195943 | 67 | 138 | 4.0 | 10.0 | 0.00 | 0.00 | 0.00 | 40 | 1017.7 |
| 20260508195841 | 67 | 41 | 4.0 | 10.0 | 0.00 | 0.00 | 0.00 | 39 | 1017.7 |
| 20260508195634 | 67 | 26 | 4.0 | 10.0 | 0.00 | 0.00 | 0.00 | 39 | 1017.7 |
| 20260508195535 | 67 | 20 | 4.0 | 10.0 | 0.00 | 0.00 | 0.00 | 39 | 1017.7 |
| 20260508195435 | 67 | 77 | 4.0 | 10.0 | 0.00 | 0.00 | 0.00 | 39 | 1017.7 |
| 20260508195334 | 67 | 105 | 5.0 | 12.0 | 0.00 | 0.00 | 0.00 | 40 | 1017.7 |
| 20260508195231 | 67 | 98 | 5.0 | 12.0 | 0.00 | 0.00 | 0.00 | 39 | 1017.7 |
| 20260508195131 | 67 | 76 | 5.0 | 12.0 | 0.00 | 0.00 | 0.00 | 39 | 1017.8 |
| 20260508195031 | 67 | 80 | 5.0 | 12.0 | 0.00 | 0.00 | 0.00 | 38 | 1017.7 |
| 20260508194931 | 67 | 80 | 5.0 | 12.0 | 0.00 | 0.00 | 0.00 | 40 | 1017.7 |
| 20260508194837 | 66 | 60 | 6.0 | 12.0 | 0.00 | 0.00 | 0.00 | 41 | 1017.8 |
| 20260508194523 | 66 | 49 | 6.0 | 12.0 | 0.00 | 0.00 | 0.00 | 40 | 1017.8 |
| 20260508194433 | 66 | 44 | 5.0 | 12.0 | 0.00 | 0.00 | 0.00 | 39 | 1017.8 |
| 20260508194426 | 66 | 36 | 5.0 | 11.0 | 0.00 | 0.00 | 0.00 | 39 | 1017.8 |
| 20260508194224 | 67 | 100 | 4.0 | 11.0 | 0.00 | 0.00 | 0.00 | 40 | 1017.8 |
| 20260508194017 | 67 | 22 | 4.0 | 11.0 | 0.00 | 0.00 | 0.00 | 39 | 1017.8 |
| 20260508193917 | 67 | 58 | 4.0 | 11.0 | 0.00 | 0.00 | 0.00 | 40 | 1017.9 |
| 20260508193816 | 67 | 51 | 4.0 | 11.0 | 0.00 | 0.00 | 0.00 | 39 | 1017.8 |
| 20260508193715 | 67 | 90 | 4.0 | 11.0 | 0.00 | 0.00 | 0.00 | 42 | 1017.8 |
| 20260508193614 | 67 | 41 | 4.0 | 11.0 | 0.00 | 0.00 | 0.00 | 40 | 1017.8 |
| 20260508193520 | 66 | 49 | 4.0 | 11.0 | 0.00 | 0.00 | 0.00 | 41 | 1017.8 |
| 20260508193311 | 66 | 49 | 5.0 | 15.0 | 0.00 | 0.00 | 0.00 | 40 | 1017.9 |
| 20260508193105 | 66 | 69 | 5.0 | 15.0 | 0.00 | 0.00 | 0.00 | 40 | 1017.9 |
| 20260508193005 | 66 | 141 | 5.0 | 15.0 | 0.00 | 0.00 | 0.00 | 40 | 1017.9 |
| 20260508192904 | 66 | 62 | 6.0 | 15.0 | 0.00 | 0.00 | 0.00 | 40 | 1017.9 |
| 20260508192804 | 66 | 81 | 6.0 | 15.0 | 0.00 | 0.00 | 0.00 | 40 | 1018.0 |
| 20260508192658 | 66 | 63 | 6.0 | 15.0 | 0.00 | 0.00 | 0.00 | 40 | 1018.0 |
| 20260508192559 | 66 | 94 | 5.0 | 15.0 | 0.00 | 0.00 | 0.00 | 43 | 1017.9 |
| 20260508192506 | 66 | 74 | 5.0 | 15.0 | 0.00 | 0.00 | 0.00 | 42 | 1017.9 |
| 20260508192258 | 66 | 64 | 4.0 | 12.0 | 0.00 | 0.00 | 0.00 | 40 | 1017.9 |
| 20260508192153 | 66 | 82 | 4.0 | 12.0 | 0.00 | 0.00 | 0.00 | 42 | 1017.9 |
| 20260508192052 | 65 | 346 | 4.0 | 10.0 | 0.00 | 0.00 | 0.00 | 45 | 1017.9 |
| 20260508191953 | 65 | 5 | 4.0 | 11.0 | 0.00 | 0.00 | 0.00 | 43 | 1018.0 |
| 20260508191906 | 65 | 41 | 5.0 | 11.0 | 0.00 | 0.00 | 0.00 | 43 | 1018.0 |
| 20260508191859 | 65 | 75 | 5.0 | 11.0 | 0.00 | 0.00 | 0.00 | 45 | 1018.0 |
| 20260508191602 | 65 | 107 | 6.0 | 11.0 | 0.00 | 0.00 | 0.00 | 41 | 1018.0 |
| 20260508191246 | 65 | 88 | 7.0 | 12.0 | 0.00 | 0.00 | 0.00 | 42 | 1018.0 |
| 20260508191149 | 65 | 71 | 7.0 | 12.0 | 0.00 | 0.00 | 0.00 | 42 | 1018.1 |
| 20260508190958 | 65 | 83 | 7.0 | 12.0 | 0.00 | 0.00 | 0.00 | 42 | 1018.0 |
| 20260508190845 | 65 | 78 | 7.0 | 12.0 | 0.00 | 0.00 | 0.00 | 42 | 1018.0 |
| 20260508190635 | 65 | 48 | 7.0 | 12.0 | 0.00 | 0.00 | 0.00 | 44 | 1018.0 |
| 20260508190535 | 65 | 85 | 6.0 | 12.0 | 0.00 | 0.00 | 0.00 | 40 | 1017.9 |
| 20260508190436 | 66 | 38 | 6.0 | 12.0 | 0.00 | 0.00 | 0.00 | 41 | 1017.9 |
| 20260508190335 | 66 | 58 | 6.0 | 12.0 | 0.00 | 0.00 | 0.00 | 44 | 1018.0 |
| 20260508190235 | 65 | 72 | 6.0 | 11.0 | 0.00 | 0.00 | 0.00 | 43 | 1018.0 |
| 20260508190128 | 65 | 62 | 6.0 | 9.0 | 0.00 | 0.00 | 0.00 | 43 | 1018.0 |
| 20260508190036 | 65 | 99 | 6.0 | 10.0 | 0.00 | 0.00 | 0.00 | 43 | 1018.1 |
| 20260508185829 | 65 | 86 | 7.0 | 11.0 | 0.00 | 0.00 | 0.00 | 43 | 1018.3 |
| 20260508185730 | 65 | 79 | 7.0 | 11.0 | 0.00 | 0.00 | 0.00 | 43 | 1018.3 |
| 20260508185622 | 65 | 84 | 7.0 | 13.0 | 0.00 | 0.00 | 0.00 | 44 | 1018.1 |
| 20260508185530 | 65 | 69 | 7.0 | 13.0 | 0.00 | 0.00 | 0.00 | 44 | 1018.1 |
| 20260508185334 | 64 | 84 | 7.0 | 13.0 | 0.00 | 0.00 | 0.00 | 43 | 1018.1 |
| 20260508185326 | 64 | 28 | 7.0 | 13.0 | 0.00 | 0.00 | 0.00 | 43 | 1018.3 |
| 20260508185119 | 64 | 42 | 7.0 | 13.0 | 0.00 | 0.00 | 0.00 | 42 | 1018.1 |
| 20260508185018 | 64 | 37 | 6.0 | 13.0 | 0.00 | 0.00 | 0.00 | 42 | 1018.1 |
| 20260508184918 | 65 | 38 | 6.0 | 13.0 | 0.00 | 0.00 | 0.00 | 43 | 1018.1 |
| 20260508184828 | 65 | 52 | 6.0 | 13.0 | 0.00 | 0.00 | 0.00 | 44 | 1018.1 |
| 20260508184716 | 65 | 355 | 6.0 | 13.0 | 0.00 | 0.00 | 0.00 | 45 | 1018.1 |
| 20260508184612 | 65 | 5 | 6.0 | 12.0 | 0.00 | 0.00 | 0.00 | 43 | 1018.3 |
| 20260508184511 | 65 | 54 | 6.0 | 12.0 | 0.00 | 0.00 | 0.00 | 44 | 1018.1 |
| 20260508184410 | 64 | 36 | 5.0 | 12.0 | 0.00 | 0.00 | 0.00 | 44 | 1018.3 |
| 20260508184310 | 64 | 42 | 5.0 | 12.0 | 0.00 | 0.00 | 0.00 | 44 | 1018.3 |
| 20260508184218 | 64 | 84 | 5.0 | 12.0 | 0.00 | 0.00 | 0.00 | 44 | 1018.3 |
| 20260508184210 | 64 | 123 | 5.0 | 12.0 | 0.00 | 0.00 | 0.00 | 44 | 1018.3 |
| 20260508184107 | 64 | 105 | 5.0 | 12.0 | 0.00 | 0.00 | 0.00 | 46 | 1018.3 |
| 20260508184007 | 64 | 36 | 6.0 | 13.0 | 0.00 | 0.00 | 0.00 | 43 | 1018.3 |
| 20260508183908 | 64 | 89 | 7.0 | 13.0 | 0.00 | 0.00 | 0.00 | 45 | 1018.4 |
| 20260508183815 | 64 | 45 | 7.0 | 13.0 | 0.00 | 0.00 | 0.00 | 44 | 1018.4 |
| 20260508183808 | 64 | 38 | 7.0 | 13.0 | 0.00 | 0.00 | 0.00 | 45 | 1018.4 |
| 20260508183601 | 64 | 31 | 7.0 | 13.0 | 0.00 | 0.00 | 0.00 | 45 | 1018.4 |
| 20260508183458 | 64 | 23 | 7.0 | 13.0 | 0.00 | 0.00 | 0.00 | 44 | 1018.4 |
| 20260508183358 | 64 | 55 | 8.0 | 14.0 | 0.00 | 0.00 | 0.00 | 48 | 1018.4 |
| 20260508183325 | 64 | 63 | 8.0 | 14.0 | 0.00 | 0.00 | 0.00 | 45 | 1018.4 |
| 20260508183158 | 64 | 63 | 7.0 | 14.0 | 0.00 | 0.00 | 0.00 | 45 | 1018.5 |
| 20260508183052 | 64 | 34 | 7.0 | 14.0 | 0.00 | 0.00 | 0.00 | 45 | 1018.4 |
| 20260508182952 | 64 | 38 | 7.0 | 14.0 | 0.00 | 0.00 | 0.00 | 45 | 1018.4 |
| 20260508182853 | 64 | 26 | 7.0 | 14.0 | 0.00 | 0.00 | 0.00 | 44 | 1018.4 |
| 20260508182752 | 64 | 63 | 7.0 | 14.0 | 0.00 | 0.00 | 0.00 | 46 | 1018.4 |
| 20260508182718 | 64 | 41 | 7.0 | 14.0 | 0.00 | 0.00 | 0.00 | 46 | 1018.3 |
| 20260508182652 | 64 | 38 | 6.0 | 14.0 | 0.00 | 0.00 | 0.00 | 45 | 1018.4 |
| 20260508182546 | 64 | 78 | 6.0 | 14.0 | 0.00 | 0.00 | 0.00 | 46 | 1018.4 |
| 20260508182446 | 64 | 38 | 6.0 | 14.0 | 0.00 | 0.00 | 0.00 | 45 | 1018.4 |
| 20260508182346 | 64 | 36 | 7.0 | 12.0 | 0.00 | 0.00 | 0.00 | 46 | 1018.5 |
| 20260508182246 | 64 | 46 | 7.0 | 12.0 | 0.00 | 0.00 | 0.00 | 46 | 1018.5 |
| 20260508182218 | 64 | 17 | 7.0 | 12.0 | 0.00 | 0.00 | 0.00 | 46 | 1018.5 |
| 20260508182146 | 64 | 59 | 7.0 | 13.0 | 0.00 | 0.00 | 0.00 | 45 | 1018.5 |
| 20260508182040 | 63 | 35 | 7.0 | 13.0 | 0.00 | 0.00 | 0.00 | 44 | 1018.6 |
| 20260508181940 | 63 | 44 | 8.0 | 13.0 | 0.00 | 0.00 | 0.00 | 46 | 1018.6 |
| 20260508181847 | 63 | 16 | 8.0 | 13.0 | 0.00 | 0.00 | 0.00 | 45 | 1018.7 |
| 20260508181717 | 63 | 74 | 7.0 | 13.0 | 0.00 | 0.00 | 0.00 | 46 | 1018.6 |
| 20260508181644 | 63 | 76 | 7.0 | 13.0 | 0.00 | 0.00 | 0.00 | 46 | 1018.6 |
| 20260508181437 | 63 | 34 | 7.0 | 13.0 | 0.00 | 0.00 | 0.00 | 44 | 1018.7 |
| 20260508181345 | 63 | 84 | 6.0 | 13.0 | 0.00 | 0.00 | 0.00 | 45 | 1018.6 |
| 20260508181216 | 63 | 31 | 6.0 | 13.0 | 0.00 | 0.00 | 0.00 | 47 | 1018.6 |
| 20260508181135 | 63 | 64 | 5.0 | 13.0 | 0.00 | 0.00 | 0.00 | 44 | 1018.6 |
| 20260508181036 | 63 | 18 | 5.0 | 13.0 | 0.00 | 0.00 | 0.00 | 44 | 1018.7 |
| 20260508180830 | 63 | 30 | 5.0 | 10.0 | 0.00 | 0.00 | 0.00 | 44 | 1018.6 |
| 20260508180822 | 63 | 32 | 5.0 | 13.0 | 0.00 | 0.00 | 0.00 | 44 | 1018.6 |
| 20260508180628 | 63 | 56 | 5.0 | 13.0 | 0.00 | 0.00 | 0.00 | 44 | 1018.6 |
| 20260508180528 | 63 | 58 | 5.0 | 13.0 | 0.00 | 0.00 | 0.00 | 44 | 1018.6 |
| 20260508180436 | 63 | 32 | 5.0 | 13.0 | 0.00 | 0.00 | 0.00 | 44 | 1018.7 |
| 20260508180225 | 63 | 53 | 6.0 | 13.0 | 0.00 | 0.00 | 0.00 | 45 | 1018.6 |
| 20260508180214 | 63 | 66 | 6.0 | 13.0 | 0.00 | 0.00 | 0.00 | 45 | 1018.6 |
| 20260508180123 | 63 | 46 | 6.0 | 13.0 | 0.00 | 0.00 | 0.00 | 44 | 1018.7 |
| 20260508180017 | 63 | 36 | 6.0 | 13.0 | 0.00 | 0.00 | 0.00 | 43 | 1018.6 |
| 20260508175917 | 64 | 71 | 6.0 | 13.0 | 0.00 | 0.00 | 0.00 | 44 | 1018.7 |
| 20260508175827 | 64 | 48 | 6.0 | 13.0 | 0.00 | 0.00 | 0.00 | 42 | 1018.7 |
| 20260508175820 | 64 | 22 | 6.0 | 13.0 | 0.00 | 0.00 | 0.00 | 44 | 1018.7 |
| 20260508175616 | 64 | 40 | 7.0 | 13.0 | 0.00 | 0.00 | 0.00 | 44 | 1018.7 |
| 20260508175510 | 63 | 96 | 7.0 | 13.0 | 0.00 | 0.00 | 0.00 | 45 | 1018.8 |
| 20260508175410 | 63 | 61 | 7.0 | 13.0 | 0.00 | 0.00 | 0.00 | 44 | 1018.8 |
| 20260508175322 | 63 | 45 | 7.0 | 13.0 | 0.00 | 0.00 | 0.00 | 44 | 1018.8 |
| 20260508175210 | 63 | 64 | 8.0 | 13.0 | 0.00 | 0.00 | 0.00 | 44 | 1018.8 |
| 20260508175110 | 63 | 46 | 8.0 | 13.0 | 0.00 | 0.00 | 0.00 | 44 | 1018.8 |
| 20260508175006 | 63 | 76 | 8.0 | 13.0 | 0.00 | 0.00 | 0.00 | 44 | 1019.0 |
| 20260508174905 | 63 | 65 | 8.0 | 13.0 | 0.00 | 0.00 | 0.00 | 44 | 1019.0 |
| 20260508174804 | 63 | 29 | 7.0 | 13.0 | 0.00 | 0.00 | 0.00 | 44 | 1019.0 |
| 20260508174714 | 63 | 55 | 7.0 | 13.0 | 0.00 | 0.00 | 0.00 | 44 | 1018.8 |
| 20260508174705 | 63 | 38 | 7.0 | 13.0 | 0.00 | 0.00 | 0.00 | 44 | 1018.8 |
| 20260508174604 | 63 | 49 | 7.0 | 13.0 | 0.00 | 0.00 | 0.00 | 47 | 1018.8 |
| 20260508174458 | 63 | 59 | 7.0 | 13.0 | 0.00 | 0.00 | 0.00 | 45 | 1018.7 |
| 20260508174359 | 63 | 32 | 7.0 | 13.0 | 0.00 | 0.00 | 0.00 | 45 | 1018.7 |
| 20260508174259 | 63 | 34 | 6.0 | 13.0 | 0.00 | 0.00 | 0.00 | 45 | 1018.7 |
| 20260508174213 | 63 | 32 | 6.0 | 13.0 | 0.00 | 0.00 | 0.00 | 46 | 1018.7 |
| 20260508174158 | 63 | 54 | 6.0 | 13.0 | 0.00 | 0.00 | 0.00 | 46 | 1018.7 |
| 20260508174058 | 63 | 67 | 6.0 | 11.0 | 0.00 | 0.00 | 0.00 | 45 | 1018.7 |
| 20260508173959 | 63 | 63 | 6.0 | 11.0 | 0.00 | 0.00 | 0.00 | 44 | 1018.8 |
| 20260508173820 | 63 | 34 | 6.0 | 11.0 | 0.00 | 0.00 | 0.00 | 44 | 1019.0 |
| 20260508173652 | 63 | 67 | 6.0 | 11.0 | 0.00 | 0.00 | 0.00 | 44 | 1018.8 |
| 20260508173552 | 63 | 59 | 6.0 | 11.0 | 0.00 | 0.00 | 0.00 | 45 | 1018.8 |
| 20260508173453 | 63 | 92 | 5.0 | 11.0 | 0.00 | 0.00 | 0.00 | 46 | 1018.8 |
| 20260508173352 | 63 | 56 | 5.0 | 11.0 | 0.00 | 0.00 | 0.00 | 45 | 1018.8 |
| 20260508173253 | 63 | 5 | 5.0 | 11.0 | 0.00 | 0.00 | 0.00 | 46 | 1018.8 |
| 20260508173214 | 63 | 16 | 4.0 | 11.0 | 0.00 | 0.00 | 0.00 | 45 | 1018.8 |
| 20260508173152 | 63 | 49 | 4.0 | 11.0 | 0.00 | 0.00 | 0.00 | 45 | 1018.8 |
| 20260508173052 | 63 | 34 | 4.0 | 11.0 | 0.00 | 0.00 | 0.00 | 45 | 1018.8 |
| 20260508172953 | 63 | 63 | 4.0 | 10.0 | 0.00 | 0.00 | 0.00 | 45 | 1018.8 |
| 20260508172928 | 63 | 27 | 5.0 | 10.0 | 0.00 | 0.00 | 0.00 | 48 | 1018.8 |
| 20260508172654 | 63 | 39 | 5.0 | 10.0 | 0.00 | 0.00 | 0.00 | 46 | 1018.8 |
| 20260508172552 | 63 | 57 | 4.0 | 10.0 | 0.00 | 0.00 | 0.00 | 49 | 1019.0 |
| 20260508172452 | 63 | 82 | 5.0 | 10.0 | 0.00 | 0.00 | 0.00 | 47 | 1019.0 |
| 20260508172353 | 63 | 0 | 4.0 | 10.0 | 0.00 | 0.00 | 0.00 | 47 | 1019.1 |
| 20260508172247 | 63 | 54 | 4.0 | 10.0 | 0.00 | 0.00 | 0.00 | 46 | 1019.0 |
| 20260508172207 | 63 | 59 | 4.0 | 10.0 | 0.00 | 0.00 | 0.00 | 46 | 1019.0 |
| 20260508172146 | 62 | 44 | 4.0 | 10.0 | 0.00 | 0.00 | 0.00 | 46 | 1019.0 |
| 20260508172046 | 62 | 24 | 4.0 | 10.0 | 0.00 | 0.00 | 0.00 | 46 | 1019.0 |
| 20260508171948 | 62 | 24 | 5.0 | 9.0 | 0.00 | 0.00 | 0.00 | 47 | 1019.0 |
| 20260508171846 | 62 | 48 | 5.0 | 12.0 | 0.00 | 0.00 | 0.00 | 45 | 1019.0 |
| 20260508171740 | 62 | 69 | 5.0 | 12.0 | 0.00 | 0.00 | 0.00 | 44 | 1019.0 |
| 20260508171706 | 62 | 49 | 5.0 | 12.0 | 0.00 | 0.00 | 0.00 | 44 | 1019.0 |
| 20260508171647 | 62 | 51 | 5.0 | 12.0 | 0.00 | 0.00 | 0.00 | 44 | 1019.0 |
| 20260508171441 | 62 | 87 | 6.0 | 13.0 | 0.00 | 0.00 | 0.00 | 45 | 1019.0 |
| 20260508171340 | 62 | 96 | 6.0 | 13.0 | 0.00 | 0.00 | 0.00 | 45 | 1019.0 |
| 20260508171236 | 62 | 93 | 6.0 | 13.0 | 0.00 | 0.00 | 0.00 | 46 | 1019.1 |
| 20260508171205 | 62 | 101 | 6.0 | 13.0 | 0.00 | 0.00 | 0.00 | 46 | 1019.1 |
| 20260508171137 | 62 | 84 | 6.0 | 13.0 | 0.00 | 0.00 | 0.00 | 49 | 1019.1 |
| 20260508171043 | 62 | 55 | 6.0 | 13.0 | 0.00 | 0.00 | 0.00 | 45 | 1019.0 |
| 20260508170844 | 62 | 48 | 6.0 | 13.0 | 0.00 | 0.00 | 0.00 | 46 | 1019.0 |
| 20260508170704 | 62 | 15 | 6.0 | 13.0 | 0.00 | 0.00 | 0.00 | 46 | 1018.8 |
| 20260508170636 | 62 | 55 | 6.0 | 13.0 | 0.00 | 0.00 | 0.00 | 46 | 1019.0 |
| 20260508170537 | 62 | 73 | 6.0 | 13.0 | 0.00 | 0.00 | 0.00 | 48 | 1019.0 |
| 20260508170444 | 62 | 19 | 6.0 | 13.0 | 0.00 | 0.00 | 0.00 | 46 | 1019.0 |
| 20260508170234 | 62 | 53 | 7.0 | 13.0 | 0.00 | 0.00 | 0.00 | 45 | 1019.1 |
| 20260508170204 | 62 | 38 | 7.0 | 13.0 | 0.00 | 0.00 | 0.00 | 45 | 1019.1 |
| 20260508170135 | 62 | 80 | 7.0 | 13.0 | 0.00 | 0.00 | 0.00 | 46 | 1019.1 |
| 20260508170042 | 62 | 62 | 7.0 | 13.0 | 0.00 | 0.00 | 0.00 | 46 | 1019.1 |
| 20260508165835 | 62 | 54 | 6.0 | 11.0 | 0.00 | 0.00 | 0.00 | 47 | 1019.1 |
| 20260508165812 | 62 | 54 | 6.0 | 11.0 | 0.00 | 0.00 | 0.00 | 47 | 1019.1 |
| 20260508165635 | 62 | 61 | 6.0 | 11.0 | 0.00 | 0.00 | 0.00 | 47 | 1019.1 |
| 20260508165428 | 62 | 51 | 5.0 | 11.0 | 0.00 | 0.00 | 0.00 | 46 | 1019.0 |
| 20260508165336 | 62 | 51 | 5.0 | 11.0 | 0.00 | 0.00 | 0.00 | 45 | 1019.0 |
| 20260508165204 | 62 | 66 | 5.0 | 11.0 | 0.00 | 0.00 | 0.00 | 46 | 1019.0 |
| 20260508165128 | 62 | 40 | 5.0 | 11.0 | 0.00 | 0.00 | 0.00 | 48 | 1019.0 |
| 20260508165022 | 62 | 36 | 5.0 | 11.0 | 0.00 | 0.00 | 0.00 | 46 | 1019.0 |
| 20260508164922 | 62 | 71 | 5.0 | 11.0 | 0.00 | 0.00 | 0.00 | 46 | 1019.0 |
| 20260508164823 | 62 | 79 | 5.0 | 11.0 | 0.00 | 0.00 | 0.00 | 49 | 1019.0 |
| 20260508164738 | 62 | 38 | 6.0 | 11.0 | 0.00 | 0.00 | 0.00 | 49 | 1019.1 |
| 20260508164731 | 62 | 29 | 6.0 | 11.0 | 0.00 | 0.00 | 0.00 | 46 | 1019.1 |
| 20260508164423 | 62 | 103 | 6.0 | 11.0 | 0.00 | 0.00 | 0.00 | 45 | 1019.1 |
| 20260508164416 | 62 | 51 | 6.0 | 11.0 | 0.00 | 0.00 | 0.00 | 45 | 1019.1 |
| 20260508164116 | 62 | 105 | 7.0 | 13.0 | 0.00 | 0.00 | 0.00 | 47 | 1019.1 |
| 20260508164017 | 62 | 88 | 7.0 | 13.0 | 0.00 | 0.00 | 0.00 | 48 | 1019.0 |
| 20260508163917 | 62 | 66 | 7.0 | 13.0 | 0.00 | 0.00 | 0.00 | 47 | 1019.0 |
| 20260508163818 | 61 | 88 | 7.0 | 13.0 | 0.00 | 0.00 | 0.00 | 47 | 1019.0 |
| 20260508163701 | 61 | 98 | 6.0 | 13.0 | 0.00 | 0.00 | 0.00 | 46 | 1019.0 |
| 20260508163616 | 61 | 76 | 7.0 | 13.0 | 0.00 | 0.00 | 0.00 | 48 | 1019.0 |
| 20260508163523 | 61 | 115 | 7.0 | 13.0 | 0.00 | 0.00 | 0.00 | 47 | 1019.0 |
| 20260508163316 | 61 | 101 | 7.0 | 13.0 | 0.00 | 0.00 | 0.00 | 48 | 1019.0 |
| 20260508163216 | 61 | 82 | 6.0 | 12.0 | 0.00 | 0.00 | 0.00 | 47 | 1019.1 |
| 20260508163202 | 61 | 74 | 6.0 | 11.0 | 0.00 | 0.00 | 0.00 | 47 | 1019.1 |
| 20260508163117 | 61 | 45 | 7.0 | 11.0 | 0.00 | 0.00 | 0.00 | 47 | 1019.0 |
| 20260508163017 | 61 | 62 | 7.0 | 11.0 | 0.00 | 0.00 | 0.00 | 47 | 1019.1 |
| 20260508162916 | 61 | 107 | 7.0 | 11.0 | 0.00 | 0.00 | 0.00 | 47 | 1019.0 |
| 20260508162814 | 61 | 67 | 7.0 | 11.0 | 0.00 | 0.00 | 0.00 | 47 | 1019.0 |
| 20260508162714 | 62 | 67 | 7.0 | 11.0 | 0.00 | 0.00 | 0.00 | 47 | 1019.0 |
| 20260508162702 | 62 | 57 | 7.0 | 11.0 | 0.00 | 0.00 | 0.00 | 47 | 1019.0 |
| 20260508162614 | 62 | 86 | 7.0 | 11.0 | 0.00 | 0.00 | 0.00 | 49 | 1019.0 |
| 20260508162514 | 62 | 212 | 7.0 | 12.0 | 0.00 | 0.00 | 0.00 | 49 | 1019.0 |
| 20260508162414 | 62 | 63 | 7.0 | 12.0 | 0.00 | 0.00 | 0.00 | 48 | 1019.0 |
| 20260508162314 | 62 | 63 | 7.0 | 12.0 | 0.00 | 0.00 | 0.00 | 49 | 1019.0 |
| 20260508162215 | 62 | 131 | 7.0 | 12.0 | 0.00 | 0.00 | 0.00 | 51 | 1019.0 |
| 20260508162202 | 62 | 117 | 7.0 | 12.0 | 0.00 | 0.00 | 0.00 | 51 | 1019.0 |
| 20260508162115 | 62 | 104 | 7.0 | 12.0 | 0.00 | 0.00 | 0.00 | 52 | 1019.0 |
| 20260508162030 | 62 | 116 | 6.0 | 12.0 | 0.00 | 0.00 | 0.00 | 50 | 1019.1 |
| 20260508161916 | 62 | 40 | 6.0 | 12.0 | 0.00 | 0.00 | 0.00 | 52 | 1019.0 |
| 20260508161612 | 61 | 91 | 5.0 | 12.0 | 0.00 | 0.00 | 0.00 | 51 | 1019.0 |
| 20260508161518 | 61 | 36 | 5.0 | 12.0 | 0.00 | 0.00 | 0.00 | 50 | 1019.0 |
| 20260508161313 | 61 | 92 | 5.0 | 12.0 | 0.00 | 0.00 | 0.00 | 52 | 1019.0 |
| 20260508161212 | 61 | 94 | 5.0 | 12.0 | 0.00 | 0.00 | 0.00 | 50 | 1019.0 |
| 20260508161201 | 61 | 146 | 5.0 | 12.0 | 0.00 | 0.00 | 0.00 | 50 | 1019.0 |
| 20260508161119 | 61 | 91 | 5.0 | 12.0 | 0.00 | 0.00 | 0.00 | 50 | 1019.0 |
| 20260508160912 | 61 | 70 | 5.0 | 12.0 | 0.00 | 0.00 | 0.00 | 51 | 1019.0 |
| 20260508160813 | 61 | 87 | 5.0 | 12.0 | 0.00 | 0.00 | 0.00 | 51 | 1019.0 |
| 20260508160712 | 61 | 47 | 6.0 | 12.0 | 0.00 | 0.00 | 0.00 | 54 | 1019.0 |
| 20260508160657 | 61 | 99 | 6.0 | 12.0 | 0.00 | 0.00 | 0.00 | 52 | 1019.0 |
| 20260508160612 | 61 | 112 | 6.0 | 12.0 | 0.00 | 0.00 | 0.00 | 53 | 1019.0 |
| 20260508160513 | 61 | 116 | 6.0 | 12.0 | 0.00 | 0.00 | 0.00 | 54 | 1019.0 |
| 20260508160412 | 61 | 149 | 6.0 | 12.0 | 0.00 | 0.00 | 0.00 | 56 | 1019.1 |
| 20260508160313 | 60 | 157 | 6.0 | 12.0 | 0.00 | 0.00 | 0.00 | 57 | 1019.1 |
| 20260508160212 | 60 | 122 | 7.0 | 13.0 | 0.00 | 0.00 | 0.00 | 54 | 1019.1 |
| 20260508160158 | 60 | 88 | 7.0 | 13.0 | 0.00 | 0.00 | 0.00 | 54 | 1019.1 |
| 20260508160113 | 60 | 84 | 7.0 | 13.0 | 0.00 | 0.00 | 0.00 | 52 | 1019.1 |
| 20260508160012 | 60 | 66 | 7.0 | 13.0 | 0.00 | 0.00 | 0.00 | 53 | 1019.1 |
| 20260508155919 | 60 | 74 | 7.0 | 13.0 | 0.00 | 0.00 | 0.00 | 55 | 1019.1 |
| 20260508155710 | 60 | 96 | 7.0 | 13.0 | 0.00 | 0.00 | 0.00 | 56 | 1019.0 |
| 20260508155658 | 60 | 144 | 7.0 | 13.0 | 0.00 | 0.00 | 0.00 | 56 | 1019.0 |
| 20260508155610 | 60 | 119 | 7.0 | 13.0 | 0.00 | 0.00 | 0.00 | 57 | 1019.1 |
| 20260508155511 | 60 | 86 | 7.0 | 13.0 | 0.00 | 0.00 | 0.00 | 56 | 1019.1 |
| 20260508155411 | 59 | 142 | 7.0 | 13.0 | 0.00 | 0.00 | 0.00 | 55 | 1019.1 |
| 20260508155311 | 59 | 116 | 6.0 | 13.0 | 0.00 | 0.00 | 0.00 | 57 | 1019.1 |
| 20260508155210 | 59 | 158 | 6.0 | 11.0 | 0.00 | 0.00 | 0.00 | 55 | 1019.1 |
| 20260508155158 | 59 | 186 | 6.0 | 11.0 | 0.00 | 0.00 | 0.00 | 55 | 1019.1 |
| 20260508155111 | 59 | 138 | 6.0 | 11.0 | 0.00 | 0.00 | 0.00 | 54 | 1019.1 |
| 20260508155010 | 59 | 105 | 6.0 | 11.0 | 0.00 | 0.00 | 0.00 | 54 | 1019.1 |
| 20260508154911 | 59 | 116 | 6.0 | 12.0 | 0.00 | 0.00 | 0.00 | 55 | 1019.1 |
| 20260508154810 | 59 | 139 | 6.0 | 12.0 | 0.00 | 0.00 | 0.00 | 54 | 1019.1 |
| 20260508154710 | 58 | 140 | 6.0 | 12.0 | 0.00 | 0.00 | 0.00 | 55 | 1019.1 |
| 20260508154657 | 58 | 136 | 6.0 | 12.0 | 0.00 | 0.00 | 0.00 | 55 | 1019.1 |
| 20260508154611 | 58 | 135 | 6.0 | 12.0 | 0.00 | 0.00 | 0.00 | 55 | 1019.0 |
| 20260508154506 | 58 | 145 | 6.0 | 12.0 | 0.00 | 0.00 | 0.00 | 54 | 1019.0 |
| 20260508154407 | 58 | 192 | 7.0 | 12.0 | 0.00 | 0.00 | 0.00 | 54 | 1019.1 |
| 20260508154307 | 58 | 86 | 7.0 | 12.0 | 0.00 | 0.00 | 0.00 | 55 | 1019.1 |
| 20260508154206 | 58 | 110 | 7.0 | 12.0 | 0.00 | 0.00 | 0.00 | 55 | 1019.1 |
| 20260508154157 | 58 | 103 | 7.0 | 12.0 | 0.00 | 0.00 | 0.00 | 55 | 1019.1 |
| 20260508154119 | 58 | 128 | 7.0 | 12.0 | 0.00 | 0.00 | 0.00 | 55 | 1019.1 |
| 20260508153805 | 58 | 104 | 7.0 | 12.0 | 0.00 | 0.00 | 0.00 | 54 | 1019.1 |
| 20260508153705 | 59 | 92 | 7.0 | 12.0 | 0.00 | 0.00 | 0.00 | 53 | 1019.1 |
| 20260508153658 | 58 | 109 | 7.0 | 12.0 | 0.00 | 0.00 | 0.00 | 53 | 1019.1 |
| 20260508153612 | 59 | 134 | 7.0 | 12.0 | 0.00 | 0.00 | 0.00 | 53 | 1019.1 |
| 20260508153405 | 59 | 124 | 6.0 | 12.0 | 0.00 | 0.00 | 0.00 | 52 | 1019.1 |
| 20260508153305 | 60 | 98 | 6.0 | 12.0 | 0.00 | 0.00 | 0.00 | 51 | 1019.0 |
| 20260508153215 | 60 | 102 | 6.0 | 12.0 | 0.00 | 0.00 | 0.00 | 51 | 1019.1 |
| 20260508153208 | 60 | 115 | 6.0 | 12.0 | 0.00 | 0.00 | 0.00 | 52 | 1019.1 |
| 20260508153004 | 60 | 140 | 5.0 | 11.0 | 0.00 | 0.00 | 0.00 | 52 | 1019.0 |
| 20260508152904 | 60 | 163 | 4.0 | 11.0 | 0.00 | 0.00 | 0.00 | 55 | 1019.0 |
| 20260508152804 | 60 | 163 | 4.0 | 11.0 | 0.00 | 0.00 | 0.00 | 55 | 1019.0 |
| 20260508152705 | 60 | 134 | 4.0 | 11.0 | 0.00 | 0.01 | 0.00 | 54 | 1019.0 |
| 20260508152659 | 60 | 134 | 4.0 | 11.0 | 0.00 | 0.01 | 0.00 | 54 | 1019.0 |
| 20260508152604 | 60 | 145 | 5.0 | 12.0 | 0.00 | 0.01 | 0.00 | 55 | 1018.8 |
| 20260508152505 | 59 | 199 | 5.0 | 12.0 | 0.00 | 0.01 | 0.00 | 56 | 1019.0 |
| 20260508152404 | 59 | 198 | 5.0 | 12.0 | 0.00 | 0.01 | 0.00 | 57 | 1019.0 |
| 20260508152306 | 59 | 175 | 4.0 | 12.0 | 0.00 | 0.01 | 0.00 | 58 | 1019.0 |
| 20260508152217 | 58 | 240 | 5.0 | 12.0 | 0.00 | 0.01 | 0.00 | 56 | 1018.8 |
| 20260508152211 | 58 | 247 | 5.0 | 12.0 | 0.00 | 0.01 | 0.00 | 56 | 1018.8 |
| 20260508152004 | 58 | 157 | 5.0 | 12.0 | 0.00 | 0.01 | 0.00 | 54 | 1019.0 |
| 20260508151905 | 58 | 139 | 5.0 | 12.0 | 0.00 | 0.01 | 0.00 | 54 | 1018.8 |
| 20260508151804 | 58 | 131 | 5.0 | 12.0 | 0.00 | 0.01 | 0.00 | 55 | 1019.0 |
| 20260508151704 | 58 | 159 | 5.0 | 12.0 | 0.00 | 0.01 | 0.00 | 57 | 1019.0 |
| 20260508151653 | 58 | 172 | 5.0 | 12.0 | 0.00 | 0.01 | 0.00 | 57 | 1019.0 |
| 20260508151605 | 58 | 130 | 5.0 | 11.0 | 0.00 | 0.01 | 0.00 | 58 | 1019.0 |
| 20260508151504 | 57 | 127 | 5.0 | 11.0 | 0.00 | 0.01 | 0.00 | 58 | 1019.0 |
| 20260508151400 | 57 | 170 | 5.0 | 11.0 | 0.00 | 0.01 | 0.00 | 58 | 1019.0 |
| 20260508151301 | 57 | 172 | 5.0 | 11.0 | 0.00 | 0.01 | 0.00 | 59 | 1019.1 |
| 20260508151153 | 57 | 174 | 5.0 | 11.0 | 0.00 | 0.01 | 0.00 | 60 | 1019.1 |
| 20260508151100 | 57 | 190 | 5.0 | 9.0 | 0.00 | 0.01 | 0.00 | 60 | 1019.0 |
| 20260508151001 | 57 | 180 | 5.0 | 9.0 | 0.00 | 0.01 | 0.00 | 59 | 1019.1 |
| 20260508150900 | 56 | 154 | 5.0 | 9.0 | 0.00 | 0.01 | 0.00 | 60 | 1019.1 |
| 20260508150818 | 56 | 171 | 5.0 | 9.0 | 0.00 | 0.01 | 0.00 | 60 | 1019.1 |
| 20260508150704 | 56 | 124 | 5.0 | 9.0 | 0.00 | 0.01 | 0.00 | 60 | 1019.1 |
| 20260508150501 | 56 | 184 | 5.0 | 11.0 | 0.00 | 0.01 | 0.00 | 61 | 1019.2 |
| 20260508150400 | 56 | 170 | 5.0 | 11.0 | 0.00 | 0.01 | 0.00 | 61 | 1019.2 |
| 20260508150300 | 56 | 159 | 6.0 | 11.0 | 0.00 | 0.01 | 0.00 | 61 | 1019.1 |
| 20260508150201 | 56 | 148 | 6.0 | 11.0 | 0.00 | 0.01 | 0.00 | 62 | 1019.2 |
| 20260508150154 | 56 | 159 | 6.0 | 11.0 | 0.00 | 0.01 | 0.00 | 62 | 1019.2 |
| 20260508150100 | 55 | 179 | 6.0 | 12.0 | 0.00 | 0.01 | 0.00 | 62 | 1019.2 |
| 20260508150002 | 55 | 136 | 6.0 | 12.0 | 0.00 | 0.01 | 0.00 | 63 | 1019.2 |
| 20260508145900 | 55 | 131 | 6.0 | 12.0 | 0.00 | 0.01 | 0.00 | 64 | 1019.2 |
| 20260508145808 | 55 | 160 | 6.0 | 12.0 | 0.00 | 0.01 | 0.00 | 65 | 1019.2 |
| 20260508145654 | 55 | 133 | 6.0 | 12.0 | 0.00 | 0.01 | 0.00 | 65 | 1019.2 |
| 20260508145600 | 55 | 170 | 6.0 | 12.0 | 0.00 | 0.01 | 0.00 | 66 | 1019.2 |
| 20260508145456 | 54 | 162 | 6.0 | 12.0 | 0.00 | 0.01 | 0.00 | 65 | 1019.2 |
| 20260508145356 | 54 | 134 | 5.0 | 12.0 | 0.00 | 0.01 | 0.00 | 66 | 1019.2 |
| 20260508145256 | 54 | 134 | 5.0 | 12.0 | 0.00 | 0.01 | 0.00 | 66 | 1019.2 |
| 20260508145157 | 54 | 159 | 5.0 | 12.0 | 0.00 | 0.01 | 0.00 | 67 | 1019.2 |
| 20260508145057 | 54 | 174 | 5.0 | 10.0 | 0.00 | 0.01 | 0.00 | 67 | 1019.2 |
| 20260508144956 | 54 | 155 | 5.0 | 10.0 | 0.00 | 0.02 | 0.00 | 67 | 1019.2 |
| 20260508144905 | 53 | 202 | 5.0 | 10.0 | 0.00 | 0.02 | 0.00 | 68 | 1019.2 |
| 20260508144656 | 53 | 175 | 5.0 | 10.0 | 0.00 | 0.02 | 0.00 | 68 | 1019.2 |
| 20260508144603 | 53 | 194 | 6.0 | 10.0 | 0.00 | 0.02 | 0.00 | 69 | 1019.2 |
| 20260508144415 | 53 | 171 | 6.0 | 11.0 | 0.00 | 0.02 | 0.00 | 68 | 1019.2 |
| 20260508144408 | 53 | 188 | 6.0 | 11.0 | 0.00 | 0.02 | 0.00 | 69 | 1019.2 |
| 20260508144057 | 53 | 193 | 6.0 | 11.0 | 0.00 | 0.02 | 0.00 | 68 | 1019.3 |
| 20260508143956 | 53 | 178 | 6.0 | 11.0 | 0.00 | 0.02 | 0.00 | 68 | 1019.3 |
| 20260508143857 | 53 | 187 | 6.0 | 11.0 | 0.00 | 0.02 | 0.00 | 68 | 1019.3 |
| 20260508143756 | 53 | 169 | 6.0 | 11.0 | 0.00 | 0.02 | 0.00 | 68 | 1019.3 |
| 20260508143659 | 53 | 169 | 6.0 | 11.0 | 0.00 | 0.02 | 0.00 | 68 | 1019.3 |
| 20260508143452 | 53 | 202 | 6.0 | 11.0 | 0.00 | 0.02 | 0.00 | 68 | 1019.3 |
| 20260508143352 | 53 | 192 | 6.0 | 11.0 | 0.00 | 0.02 | 0.00 | 68 | 1019.4 |
| 20260508143254 | 53 | 203 | 5.0 | 11.0 | 0.00 | 0.02 | 0.00 | 69 | 1019.4 |
| 20260508143156 | 53 | 202 | 5.0 | 9.0 | 0.00 | 0.02 | 0.00 | 69 | 1019.4 |
| 20260508143152 | 53 | 236 | 5.0 | 9.0 | 0.00 | 0.02 | 0.00 | 69 | 1019.4 |
| 20260508143052 | 53 | 188 | 5.0 | 9.0 | 0.00 | 0.02 | 0.00 | 69 | 1019.4 |
| 20260508142952 | 53 | 188 | 5.0 | 9.0 | 0.00 | 0.02 | 0.00 | 69 | 1019.4 |
| 20260508142853 | 53 | 185 | 4.0 | 9.0 | 0.00 | 0.02 | 0.00 | 69 | 1019.4 |
| 20260508142752 | 53 | 146 | 4.0 | 9.0 | 0.00 | 0.02 | 0.00 | 69 | 1019.6 |
| 20260508142656 | 53 | 159 | 4.0 | 9.0 | 0.00 | 0.02 | 0.00 | 69 | 1019.6 |
| 20260508142652 | 53 | 159 | 4.0 | 9.0 | 0.00 | 0.02 | 0.00 | 69 | 1019.4 |
| 20260508142553 | 53 | 160 | 4.0 | 9.0 | 0.00 | 0.02 | 0.00 | 69 | 1019.4 |
| 20260508142452 | 52 | 157 | 3.0 | 7.0 | 0.00 | 0.02 | 0.00 | 69 | 1019.6 |
| 20260508142352 | 52 | 177 | 4.0 | 8.0 | 0.00 | 0.02 | 0.00 | 69 | 1019.4 |
| 20260508142306 | 52 | 159 | 4.0 | 8.0 | 0.00 | 0.02 | 0.00 | 69 | 1019.4 |
| 20260508142152 | 52 | 140 | 4.0 | 8.0 | 0.00 | 0.02 | 0.00 | 69 | 1019.6 |
| 20260508142052 | 52 | 142 | 4.0 | 8.0 | 0.00 | 0.02 | 0.00 | 68 | 1019.6 |
| 20260508141952 | 52 | 146 | 4.0 | 8.0 | 0.00 | 0.02 | 0.00 | 68 | 1019.6 |
| 20260508141853 | 52 | 151 | 4.0 | 8.0 | 0.00 | 0.02 | 0.00 | 69 | 1019.6 |
| 20260508141752 | 52 | 124 | 4.0 | 8.0 | 0.00 | 0.02 | 0.00 | 69 | 1019.6 |
| 20260508141648 | 52 | 130 | 4.0 | 8.0 | 0.00 | 0.02 | 0.00 | 69 | 1019.6 |
| 20260508141549 | 52 | 92 | 4.0 | 8.0 | 0.00 | 0.02 | 0.00 | 69 | 1019.6 |
| 20260508141448 | 52 | 93 | 4.0 | 8.0 | 0.00 | 0.02 | 0.00 | 69 | 1019.6 |
| 20260508141348 | 52 | 171 | 4.0 | 8.0 | 0.00 | 0.02 | 0.00 | 70 | 1019.6 |
| 20260508141249 | 52 | 167 | 3.0 | 8.0 | 0.00 | 0.02 | 0.00 | 70 | 1019.6 |
| 20260508141154 | 52 | 182 | 3.0 | 8.0 | 0.00 | 0.02 | 0.00 | 70 | 1019.6 |
| 20260508141148 | 52 | 173 | 3.0 | 8.0 | 0.00 | 0.02 | 0.00 | 70 | 1019.6 |
| 20260508141055 | 52 | 190 | 3.0 | 7.0 | 0.00 | 0.02 | 0.00 | 70 | 1019.7 |
| 20260508140848 | 52 | 153 | 3.0 | 7.0 | 0.00 | 0.02 | 0.00 | 70 | 1019.7 |
| 20260508140748 | 52 | 153 | 3.0 | 7.0 | 0.00 | 0.02 | 0.00 | 69 | 1019.7 |
| 20260508140654 | 52 | 148 | 3.0 | 7.0 | 0.00 | 0.02 | 0.00 | 69 | 1019.7 |
| 20260508140648 | 52 | 174 | 3.0 | 7.0 | 0.00 | 0.02 | 0.00 | 69 | 1019.7 |
| 20260508140556 | 52 | 160 | 2.0 | 7.0 | 0.00 | 0.02 | 0.00 | 70 | 1019.7 |
| 20260508140348 | 52 | 147 | 2.0 | 7.0 | 0.00 | 0.02 | 0.00 | 72 | 1019.7 |
| 20260508140249 | 52 | 111 | 2.0 | 6.0 | 0.00 | 0.02 | 0.00 | 72 | 1019.7 |
| 20260508140148 | 52 | 101 | 2.0 | 4.0 | 0.00 | 0.02 | 0.00 | 72 | 1019.7 |
| 20260508140049 | 52 | 101 | 2.0 | 4.0 | 0.00 | 0.02 | 0.00 | 72 | 1019.7 |
| 20260508135947 | 52 | 104 | 2.0 | 4.0 | 0.00 | 0.02 | 0.00 | 71 | 1019.8 |
| 20260508135849 | 52 | 106 | 2.0 | 3.0 | 0.00 | 0.02 | 0.00 | 72 | 1019.8 |
| 20260508135800 | 52 | 105 | 2.0 | 3.0 | 0.00 | 0.02 | 0.00 | 72 | 1019.8 |
| 20260508135644 | 52 | 86 | 2.0 | 3.0 | 0.00 | 0.02 | 0.00 | 72 | 1019.8 |
| 20260508135544 | 52 | 34 | 2.0 | 3.0 | 0.00 | 0.02 | 0.00 | 72 | 1019.8 |
| 20260508135443 | 52 | 98 | 1.0 | 3.0 | 0.00 | 0.02 | 0.00 | 72 | 1019.8 |
| 20260508135403 | 52 | 111 | 1.0 | 3.0 | 0.00 | 0.02 | 0.00 | 72 | 1019.8 |
| 20260508135356 | 52 | 136 | 1.0 | 3.0 | 0.00 | 0.02 | 0.00 | 71 | 1019.7 |
| 20260508135044 | 52 | 208 | 2.0 | 4.0 | 0.00 | 0.02 | 0.00 | 71 | 1019.8 |
| 20260508134944 | 52 | 208 | 2.0 | 5.0 | 0.00 | 0.02 | 0.00 | 71 | 1019.8 |
| 20260508134844 | 52 | 208 | 2.0 | 5.0 | 0.00 | 0.02 | 0.00 | 71 | 1019.8 |
| 20260508134744 | 52 | 208 | 2.0 | 5.0 | 0.00 | 0.02 | 0.00 | 71 | 1019.8 |
| 20260508134643 | 52 | 208 | 2.0 | 5.0 | 0.00 | 0.02 | 0.00 | 71 | 1019.8 |
| 20260508134548 | 52 | 122 | 2.0 | 5.0 | 0.00 | 0.02 | 0.00 | 71 | 1019.7 |
| 20260508134342 | 53 | 178 | 3.0 | 6.0 | 0.00 | 0.02 | 0.00 | 70 | 1019.7 |
| 20260508134248 | 53 | 178 | 3.0 | 6.0 | 0.00 | 0.02 | 0.00 | 69 | 1019.7 |
| 20260508134240 | 53 | 178 | 3.0 | 6.0 | 0.00 | 0.02 | 0.00 | 69 | 1019.7 |
| 20260508134035 | 53 | 178 | 3.0 | 6.0 | 0.00 | 0.02 | 0.00 | 70 | 1019.7 |
| 20260508133934 | 53 | 193 | 3.0 | 6.0 | 0.00 | 0.02 | 0.00 | 70 | 1019.8 |
| 20260508133837 | 54 | 185 | 3.0 | 6.0 | 0.00 | 0.02 | 0.00 | 70 | 1019.8 |
| 20260508133649 | 54 | 188 | 3.0 | 6.0 | 0.00 | 0.03 | 0.00 | 69 | 1019.8 |
| 20260508133631 | 54 | 178 | 3.0 | 6.0 | 0.00 | 0.03 | 0.00 | 69 | 1019.8 |
| 20260508133425 | 54 | 207 | 2.0 | 4.0 | 0.00 | 0.03 | 0.00 | 71 | 1019.8 |
| 20260508133324 | 54 | 207 | 2.0 | 4.0 | 0.00 | 0.03 | 0.00 | 71 | 1019.8 |
| 20260508133255 | 54 | 275 | 2.0 | 4.0 | 0.00 | 0.03 | 0.00 | 72 | 1019.8 |
| 20260508133123 | 54 | 234 | 2.0 | 4.0 | 0.00 | 0.03 | 0.00 | 73 | 1019.8 |
| 20260508133018 | 53 | 250 | 2.0 | 4.0 | 0.00 | 0.03 | 0.00 | 74 | 1019.8 |
| 20260508132918 | 53 | 250 | 2.0 | 4.0 | 0.00 | 0.03 | 0.00 | 74 | 1019.8 |
| 20260508132818 | 53 | 186 | 1.0 | 4.0 | 0.00 | 0.03 | 0.00 | 74 | 1019.8 |
| 20260508132719 | 53 | 186 | 1.0 | 3.0 | 0.00 | 0.03 | 0.00 | 76 | 1019.8 |
| 20260508132625 | 52 | 186 | 1.0 | 3.0 | 0.00 | 0.03 | 0.00 | 76 | 1019.8 |
| 20260508132310 | 51 | 173 | 2.0 | 6.0 | 0.00 | 0.03 | 0.00 | 78 | 1019.8 |
| 20260508132210 | 51 | 156 | 2.0 | 6.0 | 0.00 | 0.03 | 0.00 | 79 | 1019.8 |
| 20260508132147 | 51 | 158 | 2.0 | 6.0 | 0.00 | 0.03 | 0.00 | 79 | 1019.9 |
| 20260508132110 | 51 | 158 | 2.0 | 6.0 | 0.00 | 0.03 | 0.00 | 80 | 1019.9 |
| 20260508132017 | 50 | 177 | 2.0 | 6.0 | 0.00 | 0.03 | 0.00 | 80 | 1019.9 |
| 20260508131704 | 49 | 173 | 2.0 | 6.0 | 0.00 | 0.03 | 0.00 | 81 | 1019.8 |
| 20260508131648 | 49 | 173 | 3.0 | 6.0 | 0.00 | 0.03 | 0.00 | 81 | 1019.8 |
| 20260508131604 | 49 | 173 | 3.0 | 6.0 | 0.00 | 0.03 | 0.00 | 83 | 1019.8 |
| 20260508131359 | 48 | 319 | 3.0 | 6.0 | 0.00 | 0.03 | 0.00 | 84 | 1019.8 |
| 20260508131258 | 48 | 0 | 3.0 | 6.0 | 0.00 | 0.03 | 0.00 | 85 | 1019.8 |
| 20260508131147 | 47 | 355 | 3.0 | 6.0 | 0.00 | 0.03 | 0.00 | 85 | 1019.8 |
| 20260508131053 | 47 | 26 | 3.0 | 6.0 | 0.00 | 0.03 | 0.00 | 85 | 1019.9 |
| 20260508130948 | 47 | 27 | 2.0 | 6.0 | 0.00 | 0.03 | 0.00 | 85 | 1019.8 |
| 20260508130848 | 47 | 33 | 2.0 | 6.0 | 0.00 | 0.03 | 0.00 | 85 | 1019.9 |
| 20260508130759 | 46 | 59 | 3.0 | 6.0 | 0.00 | 0.03 | 0.00 | 85 | 1019.8 |
| 20260508130648 | 46 | 275 | 3.0 | 6.0 | 0.00 | 0.03 | 0.00 | 85 | 1019.9 |
| 20260508130545 | 46 | 275 | 3.0 | 6.0 | 0.00 | 0.03 | 0.00 | 85 | 1019.8 |
| 20260508130439 | 46 | 275 | 3.0 | 8.0 | 0.00 | 0.03 | 0.00 | 85 | 1019.8 |
| 20260508130341 | 46 | 275 | 3.0 | 8.0 | 0.00 | 0.03 | 0.00 | 85 | 1019.8 |
| 20260508130240 | 46 | 275 | 3.0 | 8.0 | 0.00 | 0.03 | 0.00 | 85 | 1019.8 |
| 20260508130146 | 46 | 299 | 3.0 | 8.0 | 0.00 | 0.03 | 0.00 | 85 | 1019.8 |
| 20260508130139 | 46 | 283 | 3.0 | 8.0 | 0.00 | 0.03 | 0.00 | 85 | 1019.8 |
| 20260508130039 | 46 | 252 | 4.0 | 8.0 | 0.00 | 0.03 | 0.00 | 85 | 1019.8 |
| 20260508125943 | 46 | 252 | 4.0 | 8.0 | 0.00 | 0.03 | 0.00 | 85 | 1019.8 |
| 20260508125736 | 45 | 196 | 4.0 | 8.0 | 0.00 | 0.03 | 0.00 | 85 | 1019.8 |
| 20260508125645 | 45 | 185 | 4.0 | 8.0 | 0.00 | 0.03 | 0.00 | 85 | 1019.8 |
| 20260508125634 | 45 | 188 | 4.0 | 8.0 | 0.00 | 0.03 | 0.00 | 85 | 1019.8 |
| 20260508125534 | 45 | 271 | 4.0 | 8.0 | 0.00 | 0.03 | 0.00 | 85 | 1019.8 |
| 20260508125432 | 45 | 244 | 3.0 | 8.0 | 0.00 | 0.03 | 0.00 | 85 | 1019.8 |
| 20260508125332 | 45 | 238 | 4.0 | 7.0 | 0.00 | 0.03 | 0.00 | 85 | 1019.7 |
| 20260508125233 | 45 | 225 | 4.0 | 7.0 | 0.00 | 0.03 | 0.00 | 85 | 1019.8 |
| 20260508125146 | 45 | 236 | 4.0 | 9.0 | 0.00 | 0.03 | 0.00 | 85 | 1019.7 |
| 20260508125131 | 45 | 240 | 4.0 | 9.0 | 0.00 | 0.03 | 0.00 | 85 | 1019.7 |
| 20260508125033 | 45 | 232 | 3.0 | 9.0 | 0.00 | 0.03 | 0.00 | 85 | 1019.7 |
| 20260508124930 | 45 | 219 | 3.0 | 9.0 | 0.00 | 0.03 | 0.00 | 85 | 1019.8 |
| 20260508124831 | 45 | 274 | 4.0 | 9.0 | 0.00 | 0.03 | 0.00 | 85 | 1019.8 |
| 20260508124741 | 45 | 284 | 4.0 | 9.0 | 0.00 | 0.03 | 0.00 | 85 | 1019.8 |
| 20260508124735 | 45 | 261 | 4.0 | 9.0 | 0.00 | 0.03 | 0.00 | 85 | 1019.8 |
| 20260508124531 | 45 | 259 | 4.0 | 9.0 | 0.00 | 0.03 | 0.00 | 85 | 1019.8 |
| 20260508124430 | 45 | 298 | 5.0 | 9.0 | 0.00 | 0.03 | 0.00 | 85 | 1019.8 |
| 20260508124331 | 45 | 284 | 5.0 | 10.0 | 0.00 | 0.03 | 0.00 | 85 | 1019.8 |
| 20260508124226 | 45 | 288 | 5.0 | 10.0 | 0.00 | 0.03 | 0.00 | 85 | 1019.8 |
| 20260508124126 | 45 | 270 | 5.0 | 10.0 | 0.00 | 0.03 | 0.00 | 85 | 1019.9 |
| 20260508124026 | 45 | 305 | 5.0 | 10.0 | 0.00 | 0.03 | 0.00 | 85 | 1019.9 |
| 20260508123926 | 45 | 274 | 5.0 | 10.0 | 0.00 | 0.03 | 0.00 | 86 | 1019.9 |
| 20260508123824 | 45 | 302 | 5.0 | 10.0 | 0.00 | 0.03 | 0.00 | 86 | 1020.0 |
| 20260508123718 | 45 | 306 | 5.0 | 10.0 | 0.00 | 0.03 | 0.00 | 86 | 1020.0 |
| 20260508123640 | 45 | 293 | 4.0 | 10.0 | 0.00 | 0.03 | 0.00 | 86 | 1020.0 |
| 20260508123618 | 45 | 321 | 4.0 | 10.0 | 0.00 | 0.03 | 0.00 | 86 | 1020.0 |
| 20260508123518 | 45 | 323 | 4.0 | 10.0 | 0.00 | 0.03 | 0.00 | 86 | 1020.0 |
| 20260508123418 | 45 | 313 | 4.0 | 10.0 | 0.00 | 0.04 | 0.00 | 86 | 1020.0 |
| 20260508123318 | 44 | 325 | 3.0 | 9.0 | 0.00 | 0.04 | 0.00 | 87 | 1020.0 |
| 20260508123211 | 44 | 313 | 3.0 | 9.0 | 0.00 | 0.04 | 0.00 | 87 | 1020.0 |
| 20260508123133 | 44 | 299 | 3.0 | 9.0 | 0.00 | 0.04 | 0.00 | 87 | 1020.0 |
| 20260508123119 | 44 | 310 | 3.0 | 9.0 | 0.00 | 0.04 | 0.00 | 87 | 1020.0 |
| 20260508122912 | 44 | 336 | 3.0 | 9.0 | 0.00 | 0.04 | 0.00 | 87 | 1020.0 |
| 20260508122811 | 44 | 348 | 3.0 | 9.0 | 0.00 | 0.04 | 0.00 | 87 | 1019.9 |
| 20260508122710 | 44 | 343 | 2.0 | 7.0 | 0.00 | 0.04 | 0.00 | 88 | 1020.0 |
| 20260508122610 | 44 | 324 | 2.0 | 5.0 | 0.00 | 0.04 | 0.00 | 88 | 1019.9 |
| 20260508122509 | 44 | 324 | 2.0 | 5.0 | 0.00 | 0.04 | 0.00 | 88 | 1019.9 |
| 20260508122408 | 44 | 324 | 3.0 | 5.0 | 0.00 | 0.04 | 0.00 | 88 | 1019.9 |
| 20260508122307 | 44 | 324 | 3.0 | 6.0 | 0.00 | 0.04 | 0.00 | 88 | 1019.8 |
| 20260508122159 | 44 | 324 | 3.0 | 6.0 | 0.00 | 0.04 | 0.00 | 88 | 1019.8 |
| 20260508122120 | 44 | 324 | 3.0 | 6.0 | 0.00 | 0.04 | 0.00 | 88 | 1019.8 |
| 20260508122100 | 44 | 324 | 3.0 | 6.0 | 0.00 | 0.04 | 0.00 | 88 | 1019.8 |
| 20260508122000 | 44 | 324 | 3.0 | 6.0 | 0.00 | 0.04 | 0.00 | 88 | 1019.8 |
| 20260508121859 | 44 | 324 | 3.0 | 6.0 | 0.00 | 0.04 | 0.00 | 88 | 1019.8 |
| 20260508121801 | 44 | 324 | 3.0 | 6.0 | 0.00 | 0.04 | 0.00 | 88 | 1019.7 |
| 20260508121654 | 44 | 324 | 3.0 | 7.0 | 0.00 | 0.04 | 0.00 | 88 | 1019.7 |
| 20260508121615 | 44 | 337 | 3.0 | 7.0 | 0.00 | 0.04 | 0.00 | 88 | 1019.6 |
| 20260508121555 | 44 | 337 | 3.0 | 7.0 | 0.00 | 0.04 | 0.00 | 88 | 1019.6 |
| 20260508121500 | 44 | 337 | 4.0 | 7.0 | 0.00 | 0.04 | 0.00 | 88 | 1019.4 |
| 20260508121253 | 44 | 337 | 4.0 | 8.0 | 0.00 | 0.04 | 0.00 | 89 | 1019.3 |
| 20260508121149 | 44 | 315 | 5.0 | 8.0 | 0.00 | 0.04 | 0.00 | 89 | 1019.3 |
| 20260508121108 | 44 | 315 | 5.0 | 8.0 | 0.00 | 0.04 | 0.00 | 89 | 1019.3 |
| 20260508121048 | 44 | 315 | 5.0 | 8.0 | 0.00 | 0.04 | 0.00 | 89 | 1019.3 |
| 20260508120947 | 44 | 323 | 4.0 | 8.0 | 0.00 | 0.04 | 0.00 | 89 | 1019.2 |
| 20260508120848 | 44 | 300 | 4.0 | 8.0 | 0.00 | 0.04 | 0.00 | 89 | 1019.2 |
| 20260508120748 | 44 | 316 | 4.0 | 8.0 | 0.00 | 0.04 | 0.00 | 89 | 1019.2 |
| 20260508120709 | 43 | 305 | 4.0 | 8.0 | 0.00 | 0.04 | 0.00 | 89 | 1019.2 |
| 20260508120541 | 43 | 298 | 3.0 | 8.0 | 0.00 | 0.04 | 0.00 | 89 | 1019.1 |
| 20260508120443 | 43 | 314 | 3.0 | 8.0 | 0.00 | 0.04 | 0.00 | 90 | 1019.1 |
| 20260508120342 | 43 | 304 | 3.0 | 8.0 | 0.00 | 0.04 | 0.00 | 90 | 1019.0 |
| 20260508120242 | 43 | 316 | 2.0 | 5.0 | 0.00 | 0.04 | 0.00 | 89 | 1019.0 |
| 20260508120136 | 43 | 309 | 2.0 | 5.0 | 0.00 | 0.04 | 0.00 | 89 | 1018.8 |
| 20260508120057 | 43 | 304 | 2.0 | 5.0 | 0.00 | 0.04 | 0.00 | 89 | 1018.8 |
| 20260508120036 | 43 | 342 | 2.0 | 5.0 | 0.00 | 0.04 | 0.00 | 89 | 1018.7 |
| 20260508115937 | 42 | 342 | 2.0 | 5.0 | 0.00 | 0.04 | 0.00 | 89 | 1018.7 |
| 20260508115837 | 42 | 342 | 2.0 | 5.0 | 0.00 | 0.04 | 0.00 | 89 | 1018.6 |
| 20260508115758 | 42 | 342 | 2.0 | 4.0 | 0.00 | 0.04 | 0.00 | 89 | 1018.6 |
| 20260508115751 | 42 | 342 | 2.0 | 4.0 | 0.00 | 0.04 | 0.00 | 89 | 1018.6 |
| 20260508115331 | 42 | 342 | 2.0 | 4.0 | 0.00 | 0.04 | 0.00 | 90 | 1018.6 |
| 20260508115229 | 42 | 342 | 2.0 | 4.0 | 0.00 | 0.04 | 0.00 | 90 | 1018.6 |
| 20260508115126 | 42 | 342 | 2.0 | 4.0 | 0.00 | 0.04 | 0.00 | 90 | 1018.6 |
| 20260508115041 | 42 | 342 | 3.0 | 5.0 | 0.00 | 0.04 | 0.00 | 90 | 1018.6 |
| 20260508114723 | 42 | 342 | 3.0 | 5.0 | 0.00 | 0.04 | 0.00 | 90 | 1018.7 |
| 20260508114624 | 42 | 342 | 3.0 | 5.0 | 0.00 | 0.04 | 0.00 | 90 | 1018.7 |
| 20260508114521 | 41 | 342 | 3.0 | 5.0 | 0.00 | 0.04 | 0.00 | 89 | 1018.6 |
| 20260508114421 | 41 | 342 | 3.0 | 5.0 | 0.00 | 0.04 | 0.00 | 89 | 1018.6 |
| 20260508114320 | 41 | 342 | 3.0 | 5.0 | 0.00 | 0.04 | 0.00 | 89 | 1018.6 |
| 20260508114219 | 41 | 342 | 3.0 | 5.0 | 0.00 | 0.04 | 0.00 | 89 | 1018.6 |
| 20260508114127 | 41 | 342 | 2.0 | 5.0 | 0.00 | 0.04 | 0.00 | 89 | 1018.6 |
| 20260508114120 | 41 | 342 | 2.0 | 4.0 | 0.00 | 0.04 | 0.00 | 89 | 1018.6 |
| 20260508113917 | 41 | 342 | 2.0 | 4.0 | 0.00 | 0.04 | 0.00 | 89 | 1018.6 |
| 20260508113814 | 41 | 342 | 2.0 | 4.0 | 0.00 | 0.04 | 0.00 | 89 | 1018.7 |
| 20260508113718 | 41 | 342 | 2.0 | 4.0 | 0.00 | 0.04 | 0.00 | 89 | 1018.6 |
| 20260508113509 | 41 | 342 | 2.0 | 4.0 | 0.00 | 0.04 | 0.00 | 88 | 1018.6 |
| 20260508113415 | 41 | 342 | 2.0 | 5.0 | 0.00 | 0.04 | 0.00 | 88 | 1018.5 |
| 20260508113210 | 41 | 342 | 2.0 | 5.0 | 0.00 | 0.04 | 0.00 | 88 | 1018.5 |
| 20260508113021 | 41 | 342 | 3.0 | 5.0 | 0.00 | 0.04 | 0.00 | 88 | 1018.5 |
| 20260508113001 | 41 | 342 | 3.0 | 5.0 | 0.00 | 0.04 | 0.00 | 88 | 1018.5 |
| 20260508112859 | 41 | 342 | 3.0 | 5.0 | 0.00 | 0.04 | 0.00 | 88 | 1018.5 |
| 20260508112808 | 41 | 342 | 3.0 | 5.0 | 0.00 | 0.04 | 0.00 | 88 | 1018.5 |
| 20260508112556 | 41 | 342 | 3.0 | 5.0 | 0.00 | 0.04 | 0.00 | 88 | 1018.5 |
| 20260508112514 | 41 | 342 | 3.0 | 5.0 | 0.00 | 0.04 | 0.00 | 88 | 1018.5 |
| 20260508112456 | 41 | 342 | 3.0 | 5.0 | 0.00 | 0.04 | 0.00 | 88 | 1018.5 |
| 20260508112355 | 41 | 342 | 3.0 | 5.0 | 0.00 | 0.04 | 0.00 | 88 | 1018.5 |
| 20260508112256 | 41 | 342 | 3.0 | 5.0 | 0.00 | 0.04 | 0.00 | 88 | 1018.5 |
| 20260508112153 | 41 | 342 | 3.0 | 5.0 | 0.00 | 0.04 | 0.00 | 88 | 1018.5 |
| 20260508112050 | 41 | 342 | 3.0 | 5.0 | 0.00 | 0.04 | 0.00 | 88 | 1018.4 |
| 20260508112009 | 41 | 342 | 3.0 | 5.0 | 0.00 | 0.04 | 0.00 | 88 | 1018.4 |
| 20260508111949 | 41 | 342 | 3.0 | 5.0 | 0.00 | 0.04 | 0.00 | 88 | 1018.4 |
| 20260508111857 | 41 | 342 | 3.0 | 4.0 | 0.00 | 0.04 | 0.00 | 88 | 1018.5 |
| 20260508111647 | 41 | 342 | 2.0 | 4.0 | 0.00 | 0.04 | 0.00 | 88 | 1018.4 |
| 20260508111546 | 41 | 342 | 2.0 | 4.0 | 0.00 | 0.04 | 0.00 | 87 | 1018.4 |
| 20260508111503 | 41 | 342 | 2.0 | 4.0 | 0.00 | 0.04 | 0.00 | 87 | 1018.4 |
| 20260508111446 | 41 | 342 | 2.0 | 4.0 | 0.00 | 0.04 | 0.00 | 87 | 1018.4 |
| 20260508111346 | 41 | 342 | 2.0 | 3.0 | 0.00 | 0.04 | 0.00 | 87 | 1018.4 |
| 20260508111245 | 41 | 342 | 2.0 | 4.0 | 0.00 | 0.04 | 0.00 | 87 | 1018.4 |
| 20260508111141 | 41 | 342 | 2.0 | 4.0 | 0.00 | 0.04 | 0.00 | 87 | 1018.4 |
| 20260508111048 | 41 | 342 | 3.0 | 4.0 | 0.00 | 0.04 | 0.00 | 87 | 1018.4 |
| 20260508111040 | 41 | 342 | 3.0 | 5.0 | 0.00 | 0.04 | 0.00 | 87 | 1018.4 |
| 20260508110836 | 41 | 342 | 3.0 | 5.0 | 0.00 | 0.04 | 0.00 | 87 | 1018.4 |
| 20260508110735 | 41 | 342 | 3.0 | 6.0 | 0.00 | 0.04 | 0.00 | 87 | 1018.4 |
| 20260508110636 | 42 | 342 | 3.0 | 6.0 | 0.00 | 0.04 | 0.00 | 87 | 1018.4 |
| 20260508110530 | 42 | 342 | 4.0 | 6.0 | 0.00 | 0.04 | 0.00 | 87 | 1018.4 |
| 20260508110430 | 42 | 342 | 4.0 | 6.0 | 0.00 | 0.04 | 0.00 | 87 | 1018.4 |
| 20260508110337 | 42 | 342 | 4.0 | 6.0 | 0.00 | 0.04 | 0.00 | 87 | 1018.4 |
| 20260508110129 | 42 | 342 | 4.0 | 6.0 | 0.00 | 0.04 | 0.00 | 87 | 1018.4 |
| 20260508110026 | 42 | 342 | 4.0 | 6.0 | 0.00 | 0.04 | 0.00 | 88 | 1018.4 |
| 20260508105944 | 42 | 342 | 3.0 | 6.0 | 0.00 | 0.04 | 0.00 | 88 | 1018.4 |
| 20260508105924 | 42 | 348 | 3.0 | 6.0 | 0.00 | 0.04 | 0.00 | 88 | 1018.4 |
| 20260508105831 | 42 | 345 | 3.0 | 6.0 | 0.00 | 0.04 | 0.00 | 88 | 1018.4 |
| 20260508105623 | 41 | 319 | 3.0 | 5.0 | 0.00 | 0.04 | 0.00 | 88 | 1018.4 |
| 20260508105519 | 41 | 315 | 3.0 | 5.0 | 0.00 | 0.04 | 0.00 | 88 | 1018.4 |
| 20260508105439 | 41 | 328 | 2.0 | 5.0 | 0.00 | 0.04 | 0.00 | 88 | 1018.3 |
| 20260508105420 | 41 | 308 | 2.0 | 5.0 | 0.00 | 0.04 | 0.00 | 87 | 1018.3 |
| 20260508105320 | 41 | 9 | 2.0 | 4.0 | 0.00 | 0.04 | 0.00 | 87 | 1018.3 |
| 20260508105220 | 41 | 9 | 2.0 | 4.0 | 0.00 | 0.04 | 0.00 | 87 | 1018.3 |
| 20260508105120 | 41 | 9 | 3.0 | 4.0 | 0.00 | 0.04 | 0.00 | 87 | 1018.3 |
| 20260508104911 | 41 | 9 | 3.0 | 8.0 | 0.00 | 0.04 | 0.00 | 86 | 1018.3 |
| 20260508104812 | 41 | 9 | 3.0 | 8.0 | 0.00 | 0.04 | 0.00 | 86 | 1018.1 |
| 20260508104718 | 41 | 9 | 3.0 | 8.0 | 0.00 | 0.04 | 0.00 | 86 | 1018.3 |
| 20260508104533 | 42 | 9 | 3.0 | 8.0 | 0.00 | 0.04 | 0.00 | 86 | 1018.0 |
| 20260508104411 | 42 | 9 | 3.0 | 8.0 | 0.00 | 0.04 | 0.00 | 86 | 1018.0 |
| 20260508104310 | 42 | 9 | 3.0 | 8.0 | 0.00 | 0.04 | 0.00 | 86 | 1018.1 |
| 20260508104209 | 42 | 9 | 3.0 | 8.0 | 0.00 | 0.04 | 0.00 | 86 | 1018.1 |
| 20260508104105 | 42 | 21 | 3.0 | 8.0 | 0.00 | 0.04 | 0.00 | 86 | 1018.1 |
| 20260508104013 | 42 | 17 | 4.0 | 8.0 | 0.00 | 0.04 | 0.00 | 86 | 1018.1 |
| 20260508104006 | 42 | 24 | 3.0 | 7.0 | 0.00 | 0.04 | 0.00 | 86 | 1018.1 |
| 20260508103802 | 42 | 26 | 4.0 | 7.0 | 0.00 | 0.04 | 0.00 | 86 | 1018.1 |
| 20260508103702 | 42 | 19 | 4.0 | 9.0 | 0.00 | 0.04 | 0.00 | 86 | 1018.1 |
| 20260508103559 | 42 | 15 | 4.0 | 9.0 | 0.00 | 0.04 | 0.00 | 86 | 1018.1 |
| 20260508103454 | 42 | 15 | 4.0 | 9.0 | 0.00 | 0.04 | 0.00 | 86 | 1018.1 |
| 20260508103415 | 42 | 15 | 4.0 | 9.0 | 0.00 | 0.04 | 0.00 | 86 | 1018.0 |
| 20260508103354 | 42 | 15 | 4.0 | 9.0 | 0.00 | 0.04 | 0.00 | 86 | 1018.0 |
| 20260508103254 | 42 | 15 | 4.0 | 9.0 | 0.00 | 0.04 | 0.00 | 86 | 1018.0 |
| 20260508103200 | 42 | 19 | 3.0 | 9.0 | 0.00 | 0.04 | 0.00 | 86 | 1018.0 |
| 20260508102948 | 42 | 53 | 3.0 | 9.0 | 0.00 | 0.04 | 0.00 | 87 | 1018.0 |
| 20260508102909 | 42 | 45 | 3.0 | 9.0 | 0.00 | 0.04 | 0.00 | 87 | 1018.0 |
| 20260508102848 | 42 | 33 | 2.0 | 9.0 | 0.00 | 0.04 | 0.00 | 86 | 1018.0 |
| 20260508102747 | 42 | 50 | 2.0 | 9.0 | 0.00 | 0.04 | 0.00 | 86 | 1018.0 |
| 20260508102648 | 42 | 38 | 1.0 | 9.0 | 0.00 | 0.04 | 0.00 | 86 | 1017.9 |
| 20260508102548 | 42 | 279 | 1.0 | 3.0 | 0.00 | 0.04 | 0.00 | 86 | 1017.8 |
| 20260508102454 | 42 | 279 | 1.0 | 3.0 | 0.00 | 0.04 | 0.00 | 86 | 1017.8 |
| 20260508102447 | 42 | 279 | 1.0 | 3.0 | 0.00 | 0.04 | 0.00 | 85 | 1017.8 |
| 20260508102250 | 42 | 279 | 1.0 | 3.0 | 0.00 | 0.04 | 0.00 | 85 | 1017.5 |
| 20260508102041 | 42 | 279 | 2.0 | 6.0 | 0.00 | 0.04 | 0.00 | 85 | 1017.3 |
| 20260508101943 | 42 | 279 | 2.0 | 6.0 | 0.00 | 0.04 | 0.00 | 85 | 1017.3 |
| 20260508101857 | 42 | 279 | 2.0 | 6.0 | 0.00 | 0.04 | 0.00 | 86 | 1017.3 |
| 20260508101839 | 42 | 279 | 2.0 | 6.0 | 0.00 | 0.04 | 0.00 | 86 | 1017.2 |
| 20260508101738 | 42 | 279 | 2.0 | 6.0 | 0.00 | 0.04 | 0.00 | 86 | 1017.2 |
| 20260508101642 | 42 | 279 | 2.0 | 6.0 | 0.00 | 0.04 | 0.00 | 86 | 1017.2 |
| 20260508101432 | 42 | 279 | 2.0 | 6.0 | 0.00 | 0.04 | 0.00 | 86 | 1017.3 |
| 20260508101330 | 42 | 279 | 2.0 | 6.0 | 0.00 | 0.04 | 0.00 | 85 | 1017.3 |
| 20260508101231 | 42 | 279 | 2.0 | 6.0 | 0.00 | 0.04 | 0.00 | 85 | 1017.3 |
| 20260508101130 | 42 | 279 | 2.0 | 4.0 | 0.00 | 0.04 | 0.00 | 85 | 1017.2 |
| 20260508101029 | 42 | 279 | 2.0 | 4.0 | 0.00 | 0.04 | 0.00 | 85 | 1017.2 |
| 20260508100929 | 42 | 279 | 2.0 | 4.0 | 0.00 | 0.04 | 0.00 | 85 | 1017.2 |
| 20260508100827 | 42 | 279 | 2.0 | 4.0 | 0.00 | 0.04 | 0.00 | 85 | 1017.2 |
| 20260508100728 | 42 | 279 | 2.0 | 4.0 | 0.00 | 0.04 | 0.00 | 85 | 1017.2 |
| 20260508100626 | 42 | 279 | 2.0 | 4.0 | 0.00 | 0.04 | 0.00 | 85 | 1017.3 |
| 20260508100537 | 42 | 279 | 2.0 | 4.0 | 0.00 | 0.04 | 0.00 | 85 | 1017.3 |
| 20260508100531 | 42 | 279 | 2.0 | 4.0 | 0.00 | 0.04 | 0.00 | 85 | 1017.3 |
| 20260508100219 | 42 | 279 | 2.0 | 4.0 | 0.00 | 0.04 | 0.00 | 85 | 1017.4 |
| 20260508100120 | 42 | 279 | 2.0 | 3.0 | 0.00 | 0.04 | 0.00 | 85 | 1017.3 |
| 20260508100017 | 42 | 279 | 2.0 | 3.0 | 0.00 | 0.04 | 0.00 | 85 | 1017.3 |
| 20260508095914 | 42 | 279 | 2.0 | 3.0 | 0.00 | 0.04 | 0.00 | 85 | 1017.3 |
| 20260508095812 | 42 | 279 | 2.0 | 3.0 | 0.00 | 0.04 | 0.00 | 85 | 1017.3 |
| 20260508095712 | 42 | 279 | 2.0 | 3.0 | 0.00 | 0.04 | 0.00 | 85 | 1017.4 |
| 20260508095612 | 42 | 279 | 2.0 | 3.0 | 0.00 | 0.04 | 0.00 | 85 | 1017.4 |
| 20260508095540 | 42 | 279 | 2.0 | 3.0 | 0.00 | 0.04 | 0.00 | 85 | 1017.3 |
| 20260508095312 | 42 | 279 | 2.0 | 3.0 | 0.00 | 0.04 | 0.00 | 84 | 1017.3 |
| 20260508095105 | 42 | 279 | 2.0 | 3.0 | 0.00 | 0.04 | 0.00 | 84 | 1017.3 |
| 20260508095006 | 42 | 279 | 2.0 | 3.0 | 0.00 | 0.04 | 0.00 | 84 | 1017.3 |
| 20260508094901 | 42 | 279 | 2.0 | 4.0 | 0.00 | 0.04 | 0.00 | 84 | 1017.4 |
| 20260508094820 | 42 | 279 | 2.0 | 4.0 | 0.00 | 0.04 | 0.00 | 84 | 1017.4 |
| 20260508094801 | 42 | 279 | 2.0 | 4.0 | 0.00 | 0.04 | 0.00 | 84 | 1017.4 |
| 20260508094659 | 42 | 279 | 2.0 | 4.0 | 0.00 | 0.04 | 0.00 | 84 | 1017.4 |
| 20260508094600 | 42 | 279 | 2.0 | 4.0 | 0.00 | 0.04 | 0.00 | 84 | 1017.4 |
| 20260508094512 | 43 | 279 | 2.0 | 4.0 | 0.00 | 0.04 | 0.00 | 84 | 1017.5 |
| 20260508094505 | 43 | 279 | 2.0 | 4.0 | 0.00 | 0.04 | 0.00 | 84 | 1017.5 |
| 20260508094202 | 43 | 279 | 2.0 | 4.0 | 0.00 | 0.04 | 0.00 | 84 | 1017.5 |
| 20260508093957 | 43 | 279 | 2.0 | 4.0 | 0.00 | 0.04 | 0.00 | 84 | 1017.4 |
| 20260508093808 | 43 | 279 | 2.0 | 4.0 | 0.00 | 0.04 | 0.00 | 83 | 1017.4 |
| 20260508093747 | 43 | 279 | 2.0 | 4.0 | 0.00 | 0.04 | 0.00 | 83 | 1017.4 |
| 20260508093647 | 43 | 279 | 2.0 | 3.0 | 0.00 | 0.04 | 0.00 | 83 | 1017.4 |
| 20260508093548 | 43 | 279 | 2.0 | 3.0 | 0.00 | 0.04 | 0.00 | 83 | 1017.4 |
| 20260508093448 | 43 | 279 | 2.0 | 3.0 | 0.00 | 0.04 | 0.00 | 83 | 1017.3 |
| 20260508093302 | 43 | 279 | 2.0 | 3.0 | 0.00 | 0.04 | 0.00 | 83 | 1017.4 |
| 20260508093241 | 43 | 279 | 2.0 | 3.0 | 0.00 | 0.04 | 0.00 | 83 | 1017.4 |
| 20260508093142 | 43 | 279 | 2.0 | 3.0 | 0.00 | 0.04 | 0.00 | 83 | 1017.4 |
| 20260508093042 | 44 | 279 | 2.0 | 3.0 | 0.00 | 0.04 | 0.00 | 83 | 1017.4 |
| 20260508092941 | 44 | 279 | 1.0 | 3.0 | 0.00 | 0.04 | 0.00 | 83 | 1017.5 |
| 20260508092837 | 44 | 279 | 1.0 | 3.0 | 0.00 | 0.04 | 0.00 | 83 | 1017.5 |
| 20260508092736 | 44 | 279 | 1.0 | 3.0 | 0.00 | 0.04 | 0.00 | 83 | 1017.5 |
| 20260508092636 | 44 | 279 | 1.0 | 3.0 | 0.00 | 0.04 | 0.00 | 83 | 1017.5 |
| 20260508092536 | 44 | 279 | 1.0 | 3.0 | 0.00 | 0.04 | 0.00 | 83 | 1017.5 |
| 20260508092436 | 44 | 279 | 1.0 | 3.0 | 0.00 | 0.04 | 0.00 | 83 | 1017.5 |
| 20260508092331 | 44 | 279 | 1.0 | 3.0 | 0.00 | 0.04 | 0.00 | 83 | 1017.4 |
| 20260508092230 | 44 | 279 | 2.0 | 4.0 | 0.00 | 0.04 | 0.00 | 83 | 1017.4 |
| 20260508092137 | 44 | 279 | 2.0 | 6.0 | 0.00 | 0.04 | 0.00 | 83 | 1017.4 |
| 20260508091930 | 44 | 279 | 2.0 | 6.0 | 0.00 | 0.04 | 0.00 | 83 | 1017.4 |
| 20260508091830 | 44 | 279 | 2.0 | 6.0 | 0.00 | 0.04 | 0.00 | 83 | 1017.4 |
| 20260508091727 | 44 | 279 | 2.0 | 6.0 | 0.00 | 0.04 | 0.00 | 83 | 1017.5 |
| 20260508091627 | 44 | 279 | 2.0 | 6.0 | 0.00 | 0.04 | 0.00 | 83 | 1017.5 |
| 20260508091526 | 44 | 279 | 2.0 | 6.0 | 0.00 | 0.04 | 0.00 | 83 | 1017.7 |
| 20260508091424 | 44 | 279 | 2.0 | 6.0 | 0.00 | 0.04 | 0.00 | 83 | 1017.7 |
| 20260508091320 | 44 | 279 | 2.0 | 6.0 | 0.00 | 0.04 | 0.00 | 83 | 1017.7 |
| 20260508091245 | 44 | 279 | 2.0 | 6.0 | 0.00 | 0.04 | 0.00 | 83 | 1017.7 |
| 20260508091226 | 44 | 311 | 2.0 | 5.0 | 0.00 | 0.04 | 0.00 | 83 | 1017.7 |
| 20260508091018 | 44 | 311 | 2.0 | 4.0 | 0.00 | 0.04 | 0.00 | 83 | 1017.7 |
| 20260508090931 | 44 | 311 | 2.0 | 3.0 | 0.00 | 0.04 | 0.00 | 82 | 1017.5 |
| 20260508090817 | 44 | 311 | 2.0 | 3.0 | 0.00 | 0.04 | 0.00 | 82 | 1017.5 |
| 20260508090611 | 44 | 311 | 2.0 | 4.0 | 0.00 | 0.04 | 0.00 | 82 | 1017.5 |
| 20260508090511 | 45 | 311 | 2.0 | 5.0 | 0.00 | 0.04 | 0.00 | 82 | 1017.5 |
| 20260508090411 | 45 | 311 | 2.0 | 6.0 | 0.00 | 0.04 | 0.00 | 82 | 1017.5 |
| 20260508090318 | 45 | 311 | 3.0 | 6.0 | 0.00 | 0.04 | 0.00 | 82 | 1017.7 |
| 20260508090311 | 45 | 311 | 3.0 | 6.0 | 0.00 | 0.04 | 0.00 | 82 | 1017.5 |
| 20260508090113 | 45 | 311 | 3.0 | 7.0 | 0.00 | 0.04 | 0.00 | 82 | 1017.5 |
| 20260508085905 | 45 | 311 | 3.0 | 7.0 | 0.00 | 0.04 | 0.00 | 82 | 1017.7 |
| 20260508085804 | 45 | 311 | 4.0 | 7.0 | 0.00 | 0.04 | 0.00 | 82 | 1017.7 |
| 20260508085745 | 45 | 311 | 4.0 | 7.0 | 0.00 | 0.04 | 0.00 | 82 | 1017.7 |
| 20260508085705 | 45 | 311 | 4.0 | 7.0 | 0.00 | 0.04 | 0.00 | 83 | 1017.7 |
| 20260508085602 | 45 | 302 | 4.0 | 7.0 | 0.00 | 0.04 | 0.00 | 83 | 1017.7 |
| 20260508085501 | 45 | 317 | 3.0 | 7.0 | 0.00 | 0.04 | 0.00 | 83 | 1017.7 |
| 20260508085359 | 44 | 306 | 3.0 | 7.0 | 0.00 | 0.04 | 0.00 | 83 | 1017.7 |
| 20260508085254 | 44 | 315 | 3.0 | 7.0 | 0.00 | 0.04 | 0.00 | 83 | 1017.7 |
| 20260508085245 | 44 | 305 | 3.0 | 7.0 | 0.00 | 0.04 | 0.00 | 83 | 1017.5 |
| 20260508085154 | 44 | 314 | 3.0 | 6.0 | 0.00 | 0.04 | 0.00 | 83 | 1017.5 |
| 20260508085053 | 44 | 344 | 3.0 | 4.0 | 0.00 | 0.04 | 0.00 | 83 | 1017.7 |
| 20260508085000 | 44 | 344 | 3.0 | 4.0 | 0.00 | 0.04 | 0.00 | 83 | 1017.5 |
| 20260508084755 | 44 | 344 | 3.0 | 4.0 | 0.00 | 0.04 | 0.00 | 82 | 1017.7 |
| 20260508084547 | 45 | 344 | 3.0 | 5.0 | 0.00 | 0.04 | 0.00 | 83 | 1017.7 |
| 20260508084448 | 45 | 344 | 3.0 | 5.0 | 0.00 | 0.04 | 0.00 | 83 | 1017.7 |
| 20260508084359 | 45 | 344 | 3.0 | 6.0 | 0.00 | 0.04 | 0.00 | 83 | 1017.7 |
| 20260508084248 | 45 | 344 | 3.0 | 6.0 | 0.00 | 0.04 | 0.00 | 83 | 1017.7 |
| 20260508084146 | 44 | 344 | 3.0 | 6.0 | 0.00 | 0.04 | 0.00 | 83 | 1017.7 |
| 20260508084045 | 44 | 344 | 3.0 | 6.0 | 0.00 | 0.04 | 0.00 | 83 | 1017.7 |
| 20260508083944 | 44 | 344 | 3.0 | 6.0 | 0.00 | 0.04 | 0.00 | 83 | 1017.7 |
| 20260508083841 | 44 | 344 | 3.0 | 6.0 | 0.00 | 0.04 | 0.00 | 83 | 1017.7 |
| 20260508083743 | 44 | 344 | 3.0 | 6.0 | 0.00 | 0.04 | 0.00 | 83 | 1017.8 |
| 20260508083536 | 44 | 321 | 2.0 | 6.0 | 0.00 | 0.04 | 0.00 | 82 | 1017.8 |
| 20260508083442 | 44 | 340 | 2.0 | 6.0 | 0.00 | 0.04 | 0.00 | 82 | 1017.9 |
| 20260508083243 | 45 | 299 | 2.0 | 5.0 | 0.00 | 0.04 | 0.00 | 82 | 1017.9 |
| 20260508083230 | 45 | 345 | 2.0 | 4.0 | 0.00 | 0.04 | 0.00 | 81 | 1017.9 |
| 20260508083137 | 45 | 345 | 2.0 | 4.0 | 0.00 | 0.04 | 0.00 | 81 | 1017.9 |
| 20260508082931 | 45 | 345 | 2.0 | 4.0 | 0.00 | 0.04 | 0.00 | 81 | 1017.9 |
| 20260508082835 | 45 | 345 | 2.0 | 4.0 | 0.00 | 0.04 | 0.00 | 81 | 1017.9 |
| 20260508082828 | 45 | 345 | 2.0 | 4.0 | 0.00 | 0.04 | 0.00 | 81 | 1017.9 |
| 20260508082624 | 45 | 345 | 2.0 | 4.0 | 0.00 | 0.04 | 0.00 | 81 | 1017.9 |
| 20260508082524 | 45 | 345 | 2.0 | 4.0 | 0.00 | 0.04 | 0.00 | 81 | 1018.0 |
| 20260508082424 | 45 | 345 | 2.0 | 4.0 | 0.00 | 0.04 | 0.00 | 81 | 1018.0 |
| 20260508082323 | 45 | 342 | 2.0 | 4.0 | 0.00 | 0.04 | 0.00 | 81 | 1018.0 |
| 20260508082221 | 45 | 333 | 2.0 | 4.0 | 0.00 | 0.04 | 0.00 | 80 | 1018.0 |
| 20260508082122 | 45 | 333 | 2.0 | 4.0 | 0.00 | 0.04 | 0.00 | 80 | 1017.9 |
| 20260508082026 | 45 | 333 | 2.0 | 4.0 | 0.00 | 0.04 | 0.00 | 80 | 1017.9 |
| 20260508081818 | 46 | 333 | 2.0 | 4.0 | 0.00 | 0.04 | 0.00 | 80 | 1017.9 |
| 20260508081711 | 46 | 333 | 3.0 | 4.0 | 0.00 | 0.04 | 0.00 | 80 | 1018.0 |
| 20260508081612 | 46 | 300 | 3.0 | 5.0 | 0.00 | 0.04 | 0.00 | 80 | 1018.0 |
| 20260508081511 | 46 | 300 | 3.0 | 6.0 | 0.00 | 0.04 | 0.00 | 81 | 1018.0 |
| 20260508081413 | 46 | 310 | 3.0 | 6.0 | 0.00 | 0.04 | 0.00 | 80 | 1017.9 |
| 20260508081311 | 46 | 48 | 3.0 | 6.0 | 0.00 | 0.04 | 0.00 | 80 | 1017.9 |
| 20260508081212 | 46 | 48 | 3.0 | 6.0 | 0.00 | 0.04 | 0.00 | 80 | 1017.9 |
| 20260508081109 | 46 | 48 | 4.0 | 6.0 | 0.00 | 0.04 | 0.00 | 80 | 1017.9 |
| 20260508081010 | 46 | 48 | 4.0 | 6.0 | 0.00 | 0.04 | 0.00 | 80 | 1017.9 |
| 20260508080912 | 46 | 48 | 4.0 | 6.0 | 0.00 | 0.04 | 0.00 | 80 | 1017.8 |
| 20260508080741 | 46 | 37 | 4.0 | 6.0 | 0.00 | 0.04 | 0.00 | 80 | 1017.8 |
| 20260508080705 | 46 | 50 | 4.0 | 6.0 | 0.00 | 0.04 | 0.00 | 80 | 1017.8 |
| 20260508080605 | 46 | 48 | 4.0 | 6.0 | 0.00 | 0.04 | 0.00 | 80 | 1017.9 |
| 20260508080512 | 46 | 34 | 4.0 | 6.0 | 0.00 | 0.04 | 0.00 | 80 | 1017.9 |
| 20260508080306 | 46 | 349 | 4.0 | 6.0 | 0.00 | 0.04 | 0.00 | 80 | 1018.0 |
| 20260508080242 | 46 | 349 | 3.0 | 6.0 | 0.00 | 0.04 | 0.00 | 80 | 1018.0 |
| 20260508080206 | 46 | 0 | 3.0 | 6.0 | 0.00 | 0.04 | 0.00 | 80 | 1018.0 |
| 20260508080113 | 46 | 9 | 3.0 | 6.0 | 0.00 | 0.04 | 0.00 | 80 | 1018.1 |
| 20260508075904 | 46 | 9 | 3.0 | 6.0 | 0.00 | 0.04 | 0.00 | 81 | 1018.0 |
| 20260508075804 | 46 | 22 | 3.0 | 6.0 | 0.00 | 0.04 | 0.00 | 81 | 1018.0 |
| 20260508075741 | 45 | 22 | 3.0 | 6.0 | 0.00 | 0.04 | 0.00 | 81 | 1018.0 |
| 20260508075705 | 45 | 22 | 3.0 | 6.0 | 0.00 | 0.04 | 0.00 | 80 | 1018.0 |
| 20260508075604 | 45 | 44 | 3.0 | 5.0 | 0.00 | 0.04 | 0.00 | 80 | 1018.1 |
| 20260508075526 | 45 | 5 | 3.0 | 5.0 | 0.00 | 0.04 | 0.00 | 80 | 1018.3 |
| 20260508075308 | 45 | 11 | 3.0 | 4.0 | 0.00 | 0.04 | 0.00 | 81 | 1018.4 |
| 20260508075101 | 45 | 11 | 3.0 | 4.0 | 0.00 | 0.04 | 0.00 | 81 | 1018.5 |
| 20260508075002 | 45 | 11 | 2.0 | 4.0 | 0.00 | 0.04 | 0.00 | 81 | 1018.6 |
| 20260508074916 | 45 | 11 | 2.0 | 4.0 | 0.00 | 0.04 | 0.00 | 82 | 1018.6 |
| 20260508074801 | 45 | 11 | 2.0 | 4.0 | 0.00 | 0.04 | 0.00 | 82 | 1018.6 |
| 20260508074555 | 44 | 11 | 2.0 | 4.0 | 0.00 | 0.04 | 0.00 | 82 | 1018.6 |
| 20260508074450 | 44 | 11 | 2.0 | 4.0 | 0.00 | 0.04 | 0.00 | 81 | 1018.5 |
| 20260508074349 | 44 | 11 | 2.0 | 6.0 | 0.00 | 0.04 | 0.00 | 81 | 1018.6 |
| 20260508074231 | 44 | 11 | 3.0 | 6.0 | 0.00 | 0.04 | 0.00 | 81 | 1018.5 |
| 20260508074150 | 44 | 11 | 3.0 | 6.0 | 0.00 | 0.04 | 0.00 | 81 | 1018.5 |
| 20260508074049 | 44 | 11 | 3.0 | 6.0 | 0.00 | 0.04 | 0.00 | 81 | 1018.4 |
| 20260508073951 | 44 | 11 | 3.0 | 6.0 | 0.00 | 0.04 | 0.00 | 80 | 1018.4 |
| 20260508073732 | 44 | 11 | 3.0 | 6.0 | 0.00 | 0.04 | 0.00 | 80 | 1018.4 |
| 20260508073644 | 44 | 11 | 3.0 | 6.0 | 0.00 | 0.04 | 0.00 | 80 | 1018.5 |
| 20260508073543 | 44 | 351 | 2.0 | 6.0 | 0.00 | 0.04 | 0.00 | 79 | 1018.5 |
| 20260508073442 | 44 | 349 | 2.0 | 6.0 | 0.00 | 0.04 | 0.00 | 79 | 1018.4 |
| 20260508073341 | 44 | 0 | 2.0 | 4.0 | 0.00 | 0.04 | 0.00 | 79 | 1018.4 |
| 20260508073231 | 44 | 20 | 2.0 | 4.0 | 0.00 | 0.04 | 0.00 | 78 | 1018.4 |
| 20260508073140 | 44 | 253 | 2.0 | 4.0 | 0.00 | 0.04 | 0.00 | 78 | 1018.4 |
| 20260508073039 | 44 | 253 | 2.0 | 4.0 | 0.00 | 0.04 | 0.00 | 77 | 1018.4 |
| 20260508072937 | 44 | 253 | 1.0 | 4.0 | 0.00 | 0.04 | 0.00 | 77 | 1018.4 |
| 20260508072843 | 44 | 253 | 1.0 | 4.0 | 0.00 | 0.04 | 0.00 | 77 | 1018.5 |
| 20260508072836 | 44 | 253 | 1.0 | 3.0 | 0.00 | 0.04 | 0.00 | 77 | 1018.4 |
| 20260508072633 | 44 | 253 | 1.0 | 3.0 | 0.00 | 0.04 | 0.00 | 77 | 1018.4 |
| 20260508072533 | 45 | 253 | 1.0 | 3.0 | 0.00 | 0.04 | 0.00 | 77 | 1018.4 |
| 20260508072325 | 45 | 253 | 1.0 | 3.0 | 0.00 | 0.04 | 0.00 | 77 | 1018.4 |
| 20260508072232 | 45 | 253 | 1.0 | 3.0 | 0.00 | 0.04 | 0.00 | 77 | 1018.3 |
| 20260508072025 | 45 | 253 | 2.0 | 4.0 | 0.00 | 0.04 | 0.00 | 77 | 1018.3 |
| 20260508071923 | 45 | 253 | 2.0 | 4.0 | 0.00 | 0.04 | 0.00 | 77 | 1018.3 |
| 20260508071823 | 45 | 253 | 1.0 | 4.0 | 0.00 | 0.04 | 0.00 | 77 | 1018.3 |
| 20260508071723 | 45 | 253 | 1.0 | 4.0 | 0.00 | 0.04 | 0.00 | 76 | 1018.3 |
| 20260508071622 | 45 | 253 | 1.0 | 4.0 | 0.00 | 0.04 | 0.00 | 76 | 1018.3 |
| 20260508071520 | 45 | 253 | 1.0 | 4.0 | 0.00 | 0.04 | 0.00 | 76 | 1018.3 |
| 20260508071421 | 45 | 253 | 1.0 | 4.0 | 0.00 | 0.04 | 0.00 | 76 | 1018.3 |
| 20260508071214 | 45 | 253 | 1.0 | 4.0 | 0.00 | 0.04 | 0.00 | 76 | 1018.3 |
| 20260508071113 | 45 | 253 | 1.0 | 3.0 | 0.00 | 0.04 | 0.00 | 76 | 1018.3 |
| 20260508071013 | 46 | 253 | 1.0 | 3.0 | 0.00 | 0.04 | 0.00 | 76 | 1018.1 |
| 20260508070914 | 46 | 253 | 1.0 | 3.0 | 0.00 | 0.04 | 0.00 | 76 | 1018.1 |
| 20260508070707 | 46 | 253 | 1.0 | 3.0 | 0.00 | 0.04 | 0.00 | 76 | 1018.0 |
| 20260508070607 | 46 | 253 | 1.0 | 3.0 | 0.00 | 0.04 | 0.00 | 76 | 1018.0 |
| 20260508070517 | 46 | 253 | 2.0 | 3.0 | 0.00 | 0.04 | 0.00 | 76 | 1018.0 |
| 20260508070203 | 46 | 253 | 1.0 | 3.0 | 0.00 | 0.04 | 0.00 | 77 | 1018.1 |
| 20260508070001 | 46 | 253 | 1.0 | 3.0 | 0.00 | 0.04 | 0.00 | 76 | 1017.9 |
| 20260508065906 | 46 | 253 | 1.0 | 3.0 | 0.00 | 0.04 | 0.00 | 76 | 1017.9 |
| 20260508065724 | 46 | 253 | 1.0 | 3.0 | 0.00 | 0.04 | 0.00 | 76 | 1017.9 |
| 20260508065658 | 46 | 253 | 1.0 | 3.0 | 0.00 | 0.04 | 0.00 | 76 | 1017.9 |
| 20260508065557 | 46 | 253 | 0.0 | 2.0 | 0.00 | 0.04 | 0.00 | 75 | 1017.9 |
| 20260508065455 | 46 | 253 | 0.0 | 2.0 | 0.00 | 0.04 | 0.00 | 75 | 1018.0 |
| 20260508065356 | 46 | 253 | 0.0 | 2.0 | 0.00 | 0.04 | 0.00 | 75 | 1018.0 |
| 20260508065330 | 46 | 253 | 0.0 | 2.0 | 0.00 | 0.04 | 0.00 | 74 | 1018.0 |
| 20260508065201 | 46 | 253 | 0.0 | 2.0 | 0.00 | 0.04 | 0.00 | 74 | 1017.9 |
| 20260508064949 | 47 | 253 | 0.0 | 2.0 | 0.00 | 0.04 | 0.00 | 74 | 1017.9 |
| 20260508064846 | 47 | 253 | 0.0 | 2.0 | 0.00 | 0.04 | 0.00 | 74 | 1017.9 |
| 20260508064758 | 47 | 253 | 0.0 | 1.0 | 0.00 | 0.04 | 0.00 | 74 | 1017.9 |
| 20260508064443 | 47 | 253 | 0.0 | 1.0 | 0.00 | 0.04 | 0.00 | 74 | 1018.1 |
| 20260508064341 | 47 | 253 | 0.0 | 1.0 | 0.00 | 0.04 | 0.00 | 73 | 1018.1 |
| 20260508064221 | 47 | 253 | 0.0 | 1.0 | 0.00 | 0.04 | 0.00 | 73 | 1018.3 |
| 20260508064142 | 47 | 253 | 0.0 | 1.0 | 0.00 | 0.04 | 0.00 | 73 | 1018.1 |
| 20260508064039 | 47 | 253 | 0.0 | 1.0 | 0.00 | 0.04 | 0.00 | 73 | 1018.3 |
| 20260508063937 | 47 | 253 | 0.0 | 1.0 | 0.00 | 0.04 | 0.00 | 73 | 1018.1 |
| 20260508063843 | 48 | 253 | 0.0 | 1.0 | 0.00 | 0.04 | 0.00 | 73 | 1018.1 |
| 20260508063721 | 48 | 253 | 0.0 | 2.0 | 0.00 | 0.04 | 0.00 | 72 | 1018.1 |
| 20260508063635 | 48 | 253 | 0.0 | 2.0 | 0.00 | 0.04 | 0.00 | 72 | 1018.0 |
| 20260508063534 | 48 | 253 | 0.0 | 2.0 | 0.00 | 0.04 | 0.00 | 72 | 1018.0 |
| 20260508063431 | 48 | 253 | 0.0 | 2.0 | 0.00 | 0.04 | 0.00 | 72 | 1018.1 |
| 20260508063327 | 48 | 253 | 0.0 | 2.0 | 0.00 | 0.04 | 0.00 | 72 | 1018.1 |
| 20260508063232 | 48 | 253 | 0.0 | 2.0 | 0.00 | 0.04 | 0.00 | 71 | 1018.1 |
| 20260508063028 | 48 | 253 | 0.0 | 2.0 | 0.00 | 0.04 | 0.00 | 71 | 1018.1 |
| 20260508062926 | 48 | 253 | 0.0 | 2.0 | 0.00 | 0.04 | 0.00 | 70 | 1018.1 |
| 20260508062825 | 49 | 253 | 0.0 | 2.0 | 0.00 | 0.04 | 0.00 | 70 | 1018.0 |
| 20260508062728 | 49 | 253 | 0.0 | 2.0 | 0.00 | 0.04 | 0.00 | 70 | 1018.0 |
| 20260508062526 | 49 | 253 | 1.0 | 3.0 | 0.00 | 0.04 | 0.00 | 69 | 1018.0 |
| 20260508062336 | 49 | 253 | 1.0 | 3.0 | 0.00 | 0.04 | 0.00 | 69 | 1018.0 |
| 20260508062225 | 49 | 253 | 1.0 | 3.0 | 0.00 | 0.04 | 0.00 | 69 | 1017.9 |
| 20260508062015 | 49 | 253 | 1.0 | 3.0 | 0.00 | 0.04 | 0.00 | 69 | 1017.9 |
| 20260508061914 | 49 | 253 | 1.0 | 3.0 | 0.00 | 0.04 | 0.00 | 69 | 1017.9 |
| 20260508061807 | 50 | 253 | 1.0 | 3.0 | 0.00 | 0.04 | 0.00 | 69 | 1017.9 |
| 20260508061707 | 50 | 253 | 1.0 | 3.0 | 0.00 | 0.04 | 0.00 | 69 | 1018.0 |
| 20260508061608 | 50 | 22 | 1.0 | 3.0 | 0.00 | 0.04 | 0.00 | 69 | 1018.0 |
| 20260508061508 | 50 | 22 | 1.0 | 3.0 | 0.00 | 0.04 | 0.00 | 68 | 1018.0 |
| 20260508061415 | 50 | 22 | 1.0 | 3.0 | 0.00 | 0.04 | 0.00 | 68 | 1017.9 |
| 20260508061205 | 50 | 22 | 1.0 | 2.0 | 0.00 | 0.04 | 0.00 | 67 | 1017.9 |
| 20260508061107 | 50 | 22 | 0.0 | 2.0 | 0.00 | 0.04 | 0.00 | 67 | 1017.8 |
| 20260508061004 | 51 | 22 | 1.0 | 2.0 | 0.00 | 0.04 | 0.00 | 66 | 1017.8 |
| 20260508060905 | 51 | 22 | 1.0 | 2.0 | 0.00 | 0.04 | 0.00 | 66 | 1017.7 |
| 20260508060709 | 51 | 22 | 1.0 | 2.0 | 0.00 | 0.04 | 0.00 | 66 | 1017.7 |
| 20260508060655 | 51 | 22 | 1.0 | 2.0 | 0.00 | 0.04 | 0.00 | 66 | 1017.7 |
| 20260508060556 | 51 | 22 | 0.0 | 2.0 | 0.00 | 0.04 | 0.00 | 66 | 1017.8 |
| 20260508060455 | 51 | 22 | 0.0 | 2.0 | 0.00 | 0.04 | 0.00 | 66 | 1017.9 |
| 20260508060356 | 51 | 22 | 1.0 | 3.0 | 0.00 | 0.04 | 0.00 | 66 | 1017.8 |
| 20260508060209 | 51 | 22 | 1.0 | 4.0 | 0.00 | 0.04 | 0.00 | 66 | 1017.9 |
| 20260508060150 | 51 | 22 | 1.0 | 4.0 | 0.00 | 0.04 | 0.00 | 66 | 1017.8 |
| 20260508060050 | 52 | 22 | 1.0 | 4.0 | 0.00 | 0.04 | 0.00 | 66 | 1017.9 |
| 20260508055950 | 52 | 22 | 1.0 | 4.0 | 0.00 | 0.04 | 0.04 | 65 | 1017.8 |
| 20260508055848 | 52 | 22 | 2.0 | 4.0 | 0.00 | 0.04 | 0.04 | 65 | 1017.8 |
| 20260508055742 | 52 | 22 | 2.0 | 6.0 | 0.00 | 0.04 | 0.04 | 65 | 1017.8 |
| 20260508055702 | 52 | 22 | 2.0 | 6.0 | 0.00 | 0.04 | 0.04 | 65 | 1017.8 |
| 20260508055649 | 52 | 22 | 3.0 | 6.0 | 0.00 | 0.04 | 0.04 | 65 | 1017.8 |
| 20260508055442 | 52 | 22 | 3.0 | 9.0 | 0.00 | 0.04 | 0.04 | 65 | 1018.0 |
| 20260508055341 | 52 | 22 | 4.0 | 15.0 | 0.00 | 0.04 | 0.04 | 64 | 1018.1 |
| 20260508055239 | 52 | 22 | 4.0 | 15.0 | 0.00 | 0.04 | 0.04 | 64 | 1018.3 |
| 20260508055156 | 52 | 22 | 4.0 | 15.0 | 0.00 | 0.04 | 0.04 | 64 | 1018.3 |
| 20260508055137 | 52 | 22 | 5.0 | 15.0 | 0.00 | 0.04 | 0.04 | 64 | 1018.3 |
| 20260508055037 | 52 | 22 | 5.0 | 15.0 | 0.00 | 0.04 | 0.04 | 64 | 1018.3 |
| 20260508054937 | 52 | 5 | 6.0 | 15.0 | 0.00 | 0.04 | 0.04 | 64 | 1018.3 |
| 20260508054836 | 52 | 10 | 7.0 | 15.0 | 0.00 | 0.04 | 0.04 | 64 | 1018.3 |
| 20260508054731 | 52 | 5 | 7.0 | 15.0 | 0.00 | 0.04 | 0.04 | 64 | 1018.3 |
| 20260508054651 | 52 | 30 | 7.0 | 15.0 | 0.00 | 0.04 | 0.04 | 64 | 1018.3 |
| 20260508054630 | 52 | 38 | 7.0 | 15.0 | 0.00 | 0.04 | 0.04 | 64 | 1018.3 |
| 20260508054529 | 52 | 26 | 7.0 | 15.0 | 0.00 | 0.04 | 0.04 | 64 | 1018.3 |
| 20260508054429 | 52 | 5 | 8.0 | 15.0 | 0.00 | 0.04 | 0.04 | 64 | 1018.4 |
| 20260508054329 | 52 | 51 | 9.0 | 15.0 | 0.00 | 0.04 | 0.04 | 64 | 1018.4 |
| 20260508054224 | 52 | 344 | 9.0 | 15.0 | 0.00 | 0.04 | 0.04 | 64 | 1018.5 |
| 20260508054146 | 52 | 45 | 9.0 | 15.0 | 0.00 | 0.04 | 0.04 | 64 | 1018.5 |
| 20260508054123 | 52 | 5 | 9.0 | 15.0 | 0.00 | 0.04 | 0.04 | 64 | 1018.5 |
| 20260508054024 | 52 | 327 | 9.0 | 15.0 | 0.00 | 0.04 | 0.04 | 64 | 1018.6 |
| 20260508053924 | 52 | 317 | 9.0 | 15.0 | 0.00 | 0.04 | 0.04 | 65 | 1018.6 |
| 20260508053857 | 52 | 355 | 9.0 | 15.0 | 0.00 | 0.04 | 0.04 | 65 | 1018.7 |
| 20260508053625 | 52 | 355 | 8.0 | 15.0 | 0.00 | 0.04 | 0.04 | 65 | 1018.7 |
| 20260508053417 | 52 | 338 | 7.0 | 15.0 | 0.00 | 0.04 | 0.04 | 66 | 1018.7 |
| 20260508053317 | 51 | 315 | 6.0 | 13.0 | 0.00 | 0.04 | 0.04 | 67 | 1018.7 |
| 20260508053211 | 51 | 333 | 6.0 | 13.0 | 0.00 | 0.04 | 0.04 | 66 | 1018.6 |
| 20260508053142 | 51 | 339 | 5.0 | 13.0 | 0.00 | 0.04 | 0.04 | 66 | 1018.6 |
| 20260508053119 | 51 | 327 | 5.0 | 13.0 | 0.00 | 0.04 | 0.04 | 66 | 1018.6 |
| 20260508052921 | 51 | 315 | 4.0 | 10.0 | 0.00 | 0.04 | 0.04 | 66 | 1018.4 |
| 20260508052643 | 51 | 286 | 4.0 | 8.0 | 0.00 | 0.04 | 0.04 | 66 | 1017.9 |
| 20260508052606 | 51 | 269 | 4.0 | 8.0 | 0.00 | 0.04 | 0.04 | 66 | 1017.9 |
| 20260508052505 | 51 | 261 | 4.0 | 8.0 | 0.00 | 0.04 | 0.04 | 66 | 1017.8 |
| 20260508052406 | 51 | 275 | 4.0 | 8.0 | 0.00 | 0.04 | 0.04 | 67 | 1017.8 |
| 20260508052307 | 51 | 296 | 4.0 | 8.0 | 0.00 | 0.04 | 0.04 | 67 | 1017.7 |
| 20260508052159 | 51 | 296 | 4.0 | 8.0 | 0.00 | 0.04 | 0.04 | 67 | 1017.7 |
| 20260508052143 | 51 | 279 | 4.0 | 8.0 | 0.00 | 0.04 | 0.04 | 67 | 1017.7 |
| 20260508052059 | 51 | 280 | 4.0 | 8.0 | 0.00 | 0.04 | 0.04 | 67 | 1017.7 |
| 20260508051959 | 51 | 278 | 4.0 | 8.0 | 0.00 | 0.04 | 0.04 | 67 | 1017.7 |
| 20260508051900 | 51 | 244 | 4.0 | 8.0 | 0.00 | 0.04 | 0.04 | 67 | 1017.7 |
| 20260508051800 | 51 | 253 | 4.0 | 8.0 | 0.00 | 0.04 | 0.04 | 66 | 1017.8 |
| 20260508051641 | 51 | 267 | 3.0 | 8.0 | 0.00 | 0.04 | 0.04 | 66 | 1017.7 |
| 20260508051551 | 51 | 256 | 3.0 | 8.0 | 0.00 | 0.04 | 0.04 | 66 | 1017.7 |
| 20260508051450 | 51 | 239 | 3.0 | 6.0 | 0.00 | 0.04 | 0.04 | 66 | 1017.7 |
| 20260508051349 | 51 | 238 | 3.0 | 5.0 | 0.00 | 0.04 | 0.04 | 66 | 1017.5 |
| 20260508051249 | 51 | 249 | 3.0 | 5.0 | 0.00 | 0.04 | 0.04 | 65 | 1017.7 |
| 20260508051142 | 51 | 228 | 2.0 | 5.0 | 0.00 | 0.04 | 0.04 | 65 | 1017.7 |
| 20260508051052 | 51 | 222 | 2.0 | 5.0 | 0.00 | 0.04 | 0.04 | 65 | 1017.7 |
| 20260508050846 | 52 | 217 | 2.0 | 4.0 | 0.00 | 0.04 | 0.04 | 65 | 1017.5 |
| 20260508050745 | 52 | 217 | 2.0 | 4.0 | 0.00 | 0.04 | 0.04 | 65 | 1017.5 |
| 20260508050642 | 52 | 217 | 1.0 | 4.0 | 0.00 | 0.04 | 0.04 | 65 | 1017.5 |
| 20260508050637 | 52 | 192 | 1.0 | 4.0 | 0.00 | 0.04 | 0.04 | 65 | 1017.5 |
| 20260508050538 | 52 | 223 | 1.0 | 4.0 | 0.00 | 0.04 | 0.04 | 64 | 1017.5 |
| 20260508050438 | 52 | 211 | 1.0 | 4.0 | 0.00 | 0.04 | 0.04 | 64 | 1017.5 |
| 20260508050337 | 52 | 211 | 2.0 | 4.0 | 0.00 | 0.04 | 0.04 | 64 | 1017.4 |
| 20260508050237 | 52 | 210 | 1.0 | 4.0 | 0.00 | 0.04 | 0.04 | 64 | 1017.4 |
| 20260508050138 | 52 | 0 | 2.0 | 4.0 | 0.00 | 0.04 | 0.04 | 64 | 1017.4 |
| 20260508050037 | 52 | 0 | 2.0 | 4.0 | 0.00 | 0.04 | 0.04 | 64 | 1017.5 |
| 20260508045940 | 52 | 0 | 2.0 | 4.0 | 0.00 | 0.04 | 0.04 | 64 | 1017.5 |
| 20260508045732 | 52 | 0 | 2.0 | 4.0 | 0.00 | 0.04 | 0.04 | 64 | 1017.4 |
| 20260508045631 | 52 | 0 | 2.0 | 4.0 | 0.00 | 0.04 | 0.04 | 64 | 1017.4 |
| 20260508045541 | 52 | 0 | 2.0 | 4.0 | 0.00 | 0.04 | 0.04 | 64 | 1017.3 |
| 20260508045226 | 52 | 0 | 2.0 | 4.0 | 0.00 | 0.04 | 0.04 | 64 | 1017.3 |
| 20260508045139 | 52 | 0 | 2.0 | 5.0 | 0.00 | 0.04 | 0.04 | 64 | 1017.3 |
| 20260508045122 | 52 | 0 | 2.0 | 5.0 | 0.00 | 0.04 | 0.04 | 63 | 1017.3 |
| 20260508045019 | 52 | 0 | 2.0 | 5.0 | 0.00 | 0.04 | 0.04 | 64 | 1017.3 |
| 20260508044919 | 52 | 0 | 2.0 | 5.0 | 0.00 | 0.04 | 0.04 | 64 | 1017.3 |
| 20260508044820 | 53 | 21 | 3.0 | 5.0 | 0.00 | 0.04 | 0.04 | 64 | 1017.3 |
| 20260508044745 | 53 | 21 | 3.0 | 5.0 | 0.00 | 0.04 | 0.04 | 63 | 1017.4 |
| 20260508044616 | 53 | 347 | 3.0 | 5.0 | 0.00 | 0.04 | 0.04 | 64 | 1017.4 |
| 20260508044515 | 53 | 355 | 3.0 | 5.0 | 0.00 | 0.04 | 0.04 | 64 | 1017.4 |
| 20260508044415 | 53 | 22 | 2.0 | 5.0 | 0.00 | 0.04 | 0.04 | 64 | 1017.4 |
| 20260508044316 | 53 | 346 | 2.0 | 5.0 | 0.00 | 0.04 | 0.04 | 63 | 1017.4 |
| 20260508044214 | 53 | 342 | 2.0 | 5.0 | 0.00 | 0.04 | 0.04 | 63 | 1017.4 |
| 20260508044135 | 53 | 340 | 2.0 | 4.0 | 0.00 | 0.04 | 0.04 | 63 | 1017.2 |
| 20260508044109 | 53 | 355 | 2.0 | 4.0 | 0.00 | 0.04 | 0.04 | 63 | 1017.2 |
| 20260508044008 | 53 | 27 | 2.0 | 4.0 | 0.00 | 0.04 | 0.04 | 63 | 1017.2 |
| 20260508043907 | 53 | 350 | 2.0 | 6.0 | 0.00 | 0.04 | 0.04 | 63 | 1017.3 |
| 20260508043814 | 53 | 17 | 2.0 | 7.0 | 0.00 | 0.04 | 0.04 | 63 | 1017.3 |
| 20260508043633 | 53 | 15 | 2.0 | 7.0 | 0.00 | 0.04 | 0.04 | 63 | 1017.4 |
| 20260508043609 | 53 | 333 | 2.0 | 7.0 | 0.00 | 0.04 | 0.04 | 63 | 1017.4 |
| 20260508043401 | 53 | 333 | 3.0 | 7.0 | 0.00 | 0.04 | 0.04 | 62 | 1017.3 |
| 20260508043302 | 53 | 87 | 3.0 | 8.0 | 0.00 | 0.04 | 0.04 | 62 | 1017.3 |
| 20260508043238 | 53 | 87 | 4.0 | 10.0 | 0.00 | 0.04 | 0.04 | 62 | 1017.3 |
| 20260508043058 | 53 | 87 | 4.0 | 10.0 | 0.00 | 0.04 | 0.04 | 61 | 1017.3 |
| 20260508042955 | 54 | 87 | 5.0 | 10.0 | 0.00 | 0.04 | 0.04 | 61 | 1017.3 |
| 20260508042856 | 54 | 86 | 5.0 | 12.0 | 0.00 | 0.04 | 0.04 | 61 | 1017.3 |
| 20260508042756 | 54 | 104 | 5.0 | 12.0 | 0.00 | 0.04 | 0.04 | 61 | 1017.4 |
| 20260508042659 | 54 | 98 | 5.0 | 12.0 | 0.00 | 0.04 | 0.04 | 61 | 1017.4 |
| 20260508042453 | 54 | 45 | 6.0 | 12.0 | 0.00 | 0.04 | 0.04 | 61 | 1017.5 |
| 20260508042353 | 54 | 47 | 6.0 | 12.0 | 0.00 | 0.04 | 0.04 | 60 | 1017.5 |
| 20260508042300 | 54 | 53 | 6.0 | 12.0 | 0.00 | 0.04 | 0.04 | 60 | 1017.5 |
| 20260508042129 | 54 | 64 | 6.0 | 13.0 | 0.00 | 0.04 | 0.04 | 60 | 1017.5 |
| 20260508042053 | 54 | 44 | 6.0 | 13.0 | 0.00 | 0.04 | 0.04 | 60 | 1017.5 |
| 20260508041953 | 54 | 51 | 6.0 | 13.0 | 0.00 | 0.04 | 0.04 | 59 | 1017.5 |
| 20260508041853 | 54 | 45 | 6.0 | 13.0 | 0.00 | 0.04 | 0.04 | 59 | 1017.5 |
| 20260508041754 | 54 | 55 | 7.0 | 14.0 | 0.00 | 0.04 | 0.04 | 58 | 1017.5 |
| 20260508041654 | 54 | 58 | 7.0 | 14.0 | 0.00 | 0.04 | 0.04 | 58 | 1017.5 |
| 20260508041629 | 54 | 30 | 7.0 | 14.0 | 0.00 | 0.04 | 0.04 | 58 | 1017.5 |
| 20260508041555 | 54 | 33 | 8.0 | 14.0 | 0.00 | 0.04 | 0.04 | 57 | 1017.5 |
| 20260508041501 | 54 | 46 | 8.0 | 14.0 | 0.00 | 0.04 | 0.04 | 57 | 1017.7 |
| 20260508041301 | 54 | 42 | 8.0 | 14.0 | 0.00 | 0.04 | 0.04 | 57 | 1017.8 |
| 20260508041127 | 55 | 9 | 8.0 | 14.0 | 0.00 | 0.04 | 0.04 | 57 | 1017.9 |
| 20260508041053 | 55 | 345 | 8.0 | 14.0 | 0.00 | 0.04 | 0.04 | 57 | 1017.9 |
| 20260508040953 | 55 | 5 | 8.0 | 14.0 | 0.00 | 0.04 | 0.04 | 56 | 1017.9 |
| 20260508040847 | 55 | 355 | 8.0 | 14.0 | 0.00 | 0.04 | 0.04 | 56 | 1017.9 |
| 20260508040747 | 55 | 50 | 8.0 | 14.0 | 0.00 | 0.04 | 0.04 | 55 | 1017.8 |
| 20260508040648 | 55 | 344 | 8.0 | 14.0 | 0.00 | 0.04 | 0.04 | 55 | 1017.8 |
| 20260508040627 | 55 | 13 | 8.0 | 14.0 | 0.00 | 0.04 | 0.04 | 55 | 1017.8 |
| 20260508040549 | 55 | 26 | 8.0 | 14.0 | 0.00 | 0.04 | 0.04 | 54 | 1017.7 |
| 20260508040448 | 55 | 325 | 8.0 | 14.0 | 0.00 | 0.04 | 0.04 | 54 | 1017.5 |
| 20260508040342 | 55 | 355 | 8.0 | 14.0 | 0.00 | 0.04 | 0.04 | 54 | 1017.4 |
| 20260508040241 | 55 | 19 | 7.0 | 14.0 | 0.00 | 0.04 | 0.04 | 53 | 1017.3 |
| 20260508040141 | 55 | 58 | 6.0 | 14.0 | 0.00 | 0.04 | 0.04 | 54 | 1017.3 |
| 20260508040122 | 55 | 40 | 6.0 | 14.0 | 0.00 | 0.04 | 0.04 | 54 | 1017.3 |
| 20260508040041 | 55 | 24 | 6.0 | 12.0 | 0.00 | 0.04 | 0.04 | 54 | 1017.2 |
| 20260508035941 | 55 | 28 | 5.0 | 12.0 | 0.00 | 0.04 | 0.04 | 54 | 1017.1 |
| 20260508035836 | 55 | 32 | 5.0 | 11.0 | 0.00 | 0.04 | 0.04 | 54 | 1017.1 |
| 20260508035735 | 55 | 38 | 4.0 | 11.0 | 0.00 | 0.04 | 0.04 | 54 | 1017.0 |
| 20260508035635 | 55 | 22 | 4.0 | 11.0 | 0.00 | 0.04 | 0.04 | 54 | 1017.0 |
| 20260508035614 | 55 | 30 | 4.0 | 11.0 | 0.00 | 0.04 | 0.04 | 54 | 1017.0 |
| 20260508035535 | 55 | 19 | 3.0 | 11.0 | 0.00 | 0.04 | 0.04 | 54 | 1017.0 |
| 20260508035436 | 55 | 22 | 3.0 | 10.0 | 0.00 | 0.04 | 0.04 | 54 | 1017.0 |
| 20260508035333 | 55 | 48 | 2.0 | 10.0 | 0.00 | 0.04 | 0.04 | 53 | 1016.8 |
| 20260508035232 | 55 | 33 | 2.0 | 6.0 | 0.00 | 0.04 | 0.04 | 53 | 1016.8 |
| 20260508035110 | 55 | 5 | 2.0 | 6.0 | 0.00 | 0.04 | 0.04 | 53 | 1017.0 |
| 20260508035039 | 55 | 5 | 2.0 | 6.0 | 0.00 | 0.04 | 0.04 | 53 | 1016.8 |
| 20260508034725 | 55 | 37 | 2.0 | 6.0 | 0.00 | 0.04 | 0.04 | 52 | 1016.8 |
| 20260508034623 | 55 | 37 | 2.0 | 6.0 | 0.00 | 0.04 | 0.04 | 52 | 1016.8 |
| 20260508034603 | 55 | 45 | 2.0 | 4.0 | 0.00 | 0.04 | 0.04 | 52 | 1016.8 |
| 20260508034524 | 55 | 34 | 2.0 | 4.0 | 0.00 | 0.04 | 0.04 | 52 | 1016.8 |
| 20260508034424 | 55 | 317 | 2.0 | 5.0 | 0.00 | 0.04 | 0.04 | 52 | 1016.8 |
| 20260508034322 | 55 | 317 | 2.0 | 5.0 | 0.00 | 0.04 | 0.04 | 52 | 1016.7 |
| 20260508034221 | 56 | 317 | 2.0 | 6.0 | 0.00 | 0.04 | 0.04 | 52 | 1016.7 |
| 20260508034131 | 56 | 317 | 2.0 | 6.0 | 0.00 | 0.04 | 0.04 | 51 | 1016.7 |
| 20260508034124 | 56 | 317 | 2.0 | 6.0 | 0.00 | 0.04 | 0.04 | 51 | 1016.7 |
| 20260508033917 | 56 | 317 | 3.0 | 6.0 | 0.00 | 0.04 | 0.04 | 51 | 1016.7 |
| 20260508033815 | 56 | 317 | 3.0 | 6.0 | 0.00 | 0.04 | 0.04 | 50 | 1016.7 |
| 20260508033713 | 56 | 317 | 3.0 | 6.0 | 0.00 | 0.04 | 0.04 | 50 | 1016.7 |
| 20260508033657 | 56 | 316 | 3.0 | 6.0 | 0.00 | 0.04 | 0.04 | 50 | 1016.6 |
| 20260508033513 | 56 | 317 | 3.0 | 6.0 | 0.00 | 0.04 | 0.04 | 49 | 1016.6 |
| 20260508033411 | 56 | 281 | 3.0 | 6.0 | 0.00 | 0.04 | 0.04 | 49 | 1016.7 |
| 20260508033311 | 56 | 301 | 3.0 | 6.0 | 0.00 | 0.04 | 0.04 | 49 | 1016.6 |
| 20260508033215 | 56 | 320 | 3.0 | 6.0 | 0.00 | 0.04 | 0.04 | 49 | 1016.6 |
| 20260508033045 | 56 | 298 | 3.0 | 8.0 | 0.00 | 0.04 | 0.04 | 49 | 1016.6 |
| 20260508033014 | 56 | 298 | 3.0 | 8.0 | 0.00 | 0.04 | 0.04 | 49 | 1016.6 |
| 20260508032759 | 56 | 297 | 4.0 | 8.0 | 0.00 | 0.04 | 0.04 | 49 | 1016.7 |
| 20260508032659 | 56 | 266 | 4.0 | 8.0 | 0.00 | 0.04 | 0.04 | 49 | 1016.6 |
| 20260508032559 | 56 | 266 | 4.0 | 9.0 | 0.00 | 0.04 | 0.04 | 49 | 1016.6 |
| 20260508032538 | 56 | 275 | 4.0 | 9.0 | 0.00 | 0.04 | 0.04 | 49 | 1016.6 |
| 20260508032500 | 56 | 279 | 4.0 | 9.0 | 0.00 | 0.04 | 0.04 | 49 | 1016.6 |
| 20260508032359 | 56 | 275 | 5.0 | 9.0 | 0.00 | 0.04 | 0.04 | 49 | 1016.6 |
| 20260508032256 | 56 | 281 | 5.0 | 9.0 | 0.00 | 0.04 | 0.04 | 49 | 1016.6 |
| 20260508032200 | 56 | 277 | 5.0 | 9.0 | 0.00 | 0.04 | 0.04 | 49 | 1016.6 |
| 20260508032040 | 56 | 306 | 6.0 | 10.0 | 0.00 | 0.04 | 0.04 | 48 | 1016.5 |
| 20260508031953 | 56 | 266 | 6.0 | 12.0 | 0.00 | 0.04 | 0.04 | 49 | 1016.6 |
| 20260508031854 | 56 | 264 | 6.0 | 12.0 | 0.00 | 0.04 | 0.04 | 49 | 1016.7 |
| 20260508031648 | 56 | 250 | 7.0 | 12.0 | 0.00 | 0.04 | 0.04 | 49 | 1016.7 |
| 20260508031548 | 56 | 276 | 7.0 | 12.0 | 0.00 | 0.04 | 0.04 | 49 | 1016.6 |
| 20260508031540 | 56 | 282 | 7.0 | 12.0 | 0.00 | 0.04 | 0.04 | 49 | 1016.6 |
| 20260508031447 | 56 | 265 | 7.0 | 12.0 | 0.00 | 0.04 | 0.04 | 49 | 1016.7 |
| 20260508031347 | 56 | 273 | 7.0 | 12.0 | 0.00 | 0.04 | 0.04 | 49 | 1016.7 |
| 20260508031241 | 56 | 248 | 8.0 | 12.0 | 0.00 | 0.04 | 0.04 | 50 | 1016.7 |
| 20260508031153 | 56 | 288 | 8.0 | 12.0 | 0.00 | 0.04 | 0.04 | 49 | 1016.7 |
| 20260508031041 | 56 | 273 | 8.0 | 12.0 | 0.00 | 0.04 | 0.04 | 49 | 1016.7 |
| 20260508030949 | 56 | 295 | 8.0 | 12.0 | 0.00 | 0.04 | 0.04 | 50 | 1016.7 |
| 20260508030735 | 56 | 258 | 8.0 | 12.0 | 0.00 | 0.04 | 0.04 | 50 | 1016.6 |
| 20260508030635 | 56 | 238 | 7.0 | 12.0 | 0.00 | 0.04 | 0.04 | 50 | 1016.6 |
| 20260508030539 | 56 | 240 | 7.0 | 12.0 | 0.00 | 0.04 | 0.04 | 50 | 1016.6 |
| 20260508030535 | 56 | 275 | 7.0 | 12.0 | 0.00 | 0.04 | 0.04 | 50 | 1016.6 |
| 20260508030435 | 56 | 279 | 6.0 | 11.0 | 0.00 | 0.04 | 0.04 | 50 | 1016.5 |
| 20260508030335 | 56 | 244 | 5.0 | 11.0 | 0.00 | 0.04 | 0.04 | 49 | 1016.5 |
| 20260508030230 | 56 | 263 | 5.0 | 11.0 | 0.00 | 0.04 | 0.04 | 50 | 1016.5 |
| 20260508030140 | 56 | 247 | 4.0 | 11.0 | 0.00 | 0.04 | 0.04 | 49 | 1016.5 |
| 20260508030133 | 56 | 217 | 4.0 | 11.0 | 0.00 | 0.04 | 0.04 | 49 | 1016.6 |
| 20260508025929 | 56 | 238 | 4.0 | 10.0 | 0.00 | 0.04 | 0.04 | 49 | 1016.6 |
| 20260508025829 | 56 | 254 | 3.0 | 10.0 | 0.00 | 0.04 | 0.04 | 49 | 1016.6 |
| 20260508025725 | 56 | 232 | 3.0 | 7.0 | 0.00 | 0.04 | 0.04 | 49 | 1016.5 |
| 20260508025623 | 56 | 281 | 3.0 | 6.0 | 0.00 | 0.04 | 0.04 | 48 | 1016.6 |
| 20260508025538 | 56 | 256 | 3.0 | 6.0 | 0.00 | 0.04 | 0.04 | 49 | 1016.6 |
| 20260508025523 | 56 | 266 | 3.0 | 6.0 | 0.00 | 0.04 | 0.04 | 49 | 1016.6 |
| 20260508025423 | 56 | 279 | 3.0 | 6.0 | 0.00 | 0.04 | 0.04 | 48 | 1016.5 |
| 20260508025320 | 57 | 279 | 4.0 | 11.0 | 0.00 | 0.04 | 0.04 | 48 | 1016.5 |
| 20260508025218 | 57 | 252 | 4.0 | 13.0 | 0.00 | 0.04 | 0.04 | 48 | 1016.5 |
| 20260508025127 | 57 | 248 | 4.0 | 13.0 | 0.00 | 0.04 | 0.04 | 48 | 1016.5 |
| 20260508025120 | 57 | 254 | 5.0 | 13.0 | 0.00 | 0.04 | 0.04 | 48 | 1016.5 |
| 20260508024915 | 57 | 265 | 5.0 | 13.0 | 0.00 | 0.04 | 0.04 | 47 | 1016.6 |
| 20260508024813 | 57 | 294 | 5.0 | 13.0 | 0.00 | 0.04 | 0.04 | 47 | 1016.6 |
| 20260508024709 | 57 | 294 | 6.0 | 13.0 | 0.00 | 0.04 | 0.04 | 47 | 1016.5 |
| 20260508024610 | 57 | 259 | 6.0 | 13.0 | 0.00 | 0.04 | 0.04 | 48 | 1016.5 |
| 20260508024539 | 57 | 268 | 7.0 | 13.0 | 0.00 | 0.04 | 0.04 | 47 | 1016.6 |
| 20260508024516 | 57 | 234 | 7.0 | 13.0 | 0.00 | 0.04 | 0.04 | 47 | 1016.6 |
| 20260508024310 | 57 | 243 | 7.0 | 13.0 | 0.00 | 0.04 | 0.04 | 46 | 1016.6 |
| 20260508024210 | 57 | 263 | 7.0 | 13.0 | 0.00 | 0.04 | 0.04 | 46 | 1016.5 |
| 20260508024109 | 57 | 272 | 7.0 | 13.0 | 0.00 | 0.04 | 0.04 | 47 | 1016.5 |
| 20260508024038 | 57 | 273 | 8.0 | 13.0 | 0.00 | 0.04 | 0.04 | 47 | 1016.4 |
| 20260508024009 | 57 | 250 | 8.0 | 14.0 | 0.00 | 0.04 | 0.04 | 47 | 1016.4 |
| 20260508023942 | 57 | 259 | 8.0 | 17.0 | 0.00 | 0.04 | 0.04 | 47 | 1016.4 |
| 20260508023722 | 57 | 245 | 10.0 | 19.0 | 0.00 | 0.04 | 0.04 | 48 | 1016.4 |
| 20260508023409 | 57 | 246 | 9.0 | 19.0 | 0.00 | 0.04 | 0.04 | 47 | 1016.4 |
| 20260508023309 | 57 | 270 | 9.0 | 19.0 | 0.00 | 0.04 | 0.04 | 48 | 1016.4 |
| 20260508023209 | 57 | 244 | 9.0 | 19.0 | 0.00 | 0.04 | 0.04 | 48 | 1016.4 |
| 20260508023111 | 57 | 275 | 8.0 | 19.0 | 0.00 | 0.04 | 0.04 | 48 | 1016.4 |
| 20260508023040 | 57 | 249 | 8.0 | 19.0 | 0.00 | 0.04 | 0.04 | 48 | 1016.4 |
| 20260508023003 | 57 | 267 | 8.0 | 19.0 | 0.00 | 0.04 | 0.04 | 47 | 1016.4 |
| 20260508022903 | 57 | 256 | 7.0 | 19.0 | 0.00 | 0.04 | 0.04 | 47 | 1016.4 |
| 20260508022803 | 57 | 263 | 5.0 | 15.0 | 0.00 | 0.04 | 0.04 | 47 | 1016.2 |
| 20260508022703 | 57 | 254 | 5.0 | 15.0 | 0.00 | 0.04 | 0.04 | 46 | 1016.2 |
| 20260508022604 | 57 | 265 | 4.0 | 11.0 | 0.00 | 0.04 | 0.04 | 47 | 1016.4 |
| 20260508022539 | 57 | 225 | 4.0 | 11.0 | 0.00 | 0.04 | 0.04 | 47 | 1016.2 |
| 20260508022512 | 57 | 255 | 4.0 | 9.0 | 0.00 | 0.04 | 0.04 | 46 | 1016.2 |
| 20260508022206 | 56 | 203 | 3.0 | 7.0 | 0.00 | 0.04 | 0.04 | 48 | 1016.2 |
| 20260508022039 | 57 | 227 | 3.0 | 7.0 | 0.00 | 0.04 | 0.04 | 49 | 1016.2 |
| 20260508022000 | 57 | 200 | 3.0 | 7.0 | 0.00 | 0.04 | 0.04 | 49 | 1016.2 |
| 20260508021907 | 57 | 217 | 3.0 | 7.0 | 0.00 | 0.04 | 0.04 | 50 | 1016.2 |
| 20260508021659 | 56 | 315 | 4.0 | 7.0 | 0.00 | 0.04 | 0.04 | 48 | 1016.4 |
| 20260508021559 | 56 | 286 | 4.0 | 8.0 | 0.00 | 0.04 | 0.04 | 50 | 1016.4 |
| 20260508021539 | 56 | 348 | 4.0 | 8.0 | 0.00 | 0.04 | 0.04 | 50 | 1016.5 |
| 20260508021457 | 57 | 228 | 4.0 | 8.0 | 0.00 | 0.04 | 0.04 | 50 | 1016.5 |
| 20260508021357 | 57 | 268 | 3.0 | 8.0 | 0.00 | 0.04 | 0.04 | 50 | 1016.6 |
| 20260508021253 | 57 | 231 | 3.0 | 8.0 | 0.00 | 0.04 | 0.04 | 50 | 1016.6 |
| 20260508021151 | 57 | 232 | 3.0 | 8.0 | 0.00 | 0.04 | 0.04 | 50 | 1016.6 |
| 20260508021051 | 57 | 221 | 3.0 | 8.0 | 0.00 | 0.04 | 0.04 | 51 | 1016.6 |
| 20260508021039 | 57 | 238 | 3.0 | 8.0 | 0.00 | 0.04 | 0.04 | 51 | 1016.6 |
| 20260508020952 | 57 | 219 | 2.0 | 8.0 | 0.00 | 0.04 | 0.04 | 51 | 1016.6 |
| 20260508020849 | 57 | 230 | 2.0 | 8.0 | 0.00 | 0.04 | 0.04 | 52 | 1016.6 |
| 20260508020746 | 57 | 240 | 2.0 | 8.0 | 0.00 | 0.04 | 0.04 | 51 | 1016.6 |
| 20260508020652 | 57 | 272 | 2.0 | 7.0 | 0.00 | 0.04 | 0.04 | 51 | 1016.5 |
| 20260508020539 | 57 | 244 | 2.0 | 4.0 | 0.00 | 0.04 | 0.04 | 50 | 1016.5 |
| 20260508020445 | 57 | 350 | 2.0 | 5.0 | 0.00 | 0.04 | 0.04 | 50 | 1016.4 |
| 20260508020345 | 57 | 350 | 2.0 | 5.0 | 0.00 | 0.04 | 0.04 | 50 | 1016.2 |
| 20260508020245 | 57 | 350 | 2.0 | 5.0 | 0.00 | 0.04 | 0.04 | 50 | 1016.2 |
| 20260508020146 | 57 | 350 | 2.0 | 5.0 | 0.00 | 0.04 | 0.04 | 49 | 1016.1 |
| 20260508020039 | 57 | 350 | 3.0 | 5.0 | 0.00 | 0.04 | 0.04 | 49 | 1016.1 |
| 20260508015947 | 57 | 350 | 3.0 | 5.0 | 0.00 | 0.04 | 0.04 | 50 | 1016.1 |
| 20260508015846 | 57 | 350 | 3.0 | 6.0 | 0.00 | 0.04 | 0.04 | 50 | 1016.0 |
| 20260508015744 | 57 | 350 | 3.0 | 8.0 | 0.00 | 0.04 | 0.04 | 50 | 1016.1 |
| 20260508015644 | 58 | 350 | 4.0 | 8.0 | 0.00 | 0.04 | 0.04 | 50 | 1016.1 |
| 20260508015541 | 58 | 350 | 4.0 | 11.0 | 0.00 | 0.04 | 0.04 | 50 | 1016.0 |
| 20260508015442 | 58 | 350 | 4.0 | 11.0 | 0.00 | 0.04 | 0.04 | 49 | 1016.0 |
| 20260508015342 | 58 | 350 | 5.0 | 13.0 | 0.00 | 0.04 | 0.04 | 49 | 1016.0 |
| 20260508015242 | 58 | 350 | 5.0 | 13.0 | 0.00 | 0.04 | 0.04 | 49 | 1016.0 |
| 20260508015153 | 58 | 9 | 5.0 | 13.0 | 0.00 | 0.04 | 0.04 | 49 | 1016.0 |
| 20260508015041 | 58 | 11 | 6.0 | 13.0 | 0.00 | 0.04 | 0.04 | 48 | 1016.0 |
| 20260508014941 | 58 | 5 | 6.0 | 13.0 | 0.00 | 0.04 | 0.04 | 50 | 1016.0 |
| 20260508014843 | 58 | 355 | 6.0 | 13.0 | 0.00 | 0.04 | 0.04 | 48 | 1015.9 |
| 20260508014746 | 58 | 18 | 6.0 | 13.0 | 0.00 | 0.04 | 0.04 | 47 | 1015.9 |
| 20260508014540 | 59 | 28 | 7.0 | 13.0 | 0.00 | 0.04 | 0.04 | 47 | 1015.8 |
| 20260508014440 | 59 | 24 | 6.0 | 13.0 | 0.00 | 0.04 | 0.04 | 45 | 1015.6 |
| 20260508014337 | 59 | 25 | 6.0 | 13.0 | 0.00 | 0.04 | 0.04 | 45 | 1015.8 |
| 20260508014237 | 59 | 5 | 6.0 | 13.0 | 0.00 | 0.04 | 0.04 | 46 | 1015.8 |
| 20260508014149 | 59 | 32 | 6.0 | 13.0 | 0.00 | 0.04 | 0.04 | 47 | 1015.8 |
| 20260508014038 | 59 | 47 | 6.0 | 13.0 | 0.00 | 0.04 | 0.04 | 48 | 1015.8 |
| 20260508013944 | 60 | 47 | 6.0 | 13.0 | 0.00 | 0.04 | 0.04 | 47 | 1015.8 |
| 20260508013735 | 60 | 306 | 5.0 | 13.0 | 0.00 | 0.04 | 0.04 | 46 | 1015.6 |
| 20260508013635 | 60 | 26 | 4.0 | 13.0 | 0.00 | 0.04 | 0.04 | 47 | 1015.6 |
| 20260508013542 | 60 | 59 | 4.0 | 9.0 | 0.00 | 0.04 | 0.04 | 45 | 1015.6 |
| 20260508013358 | 60 | 87 | 3.0 | 9.0 | 0.00 | 0.04 | 0.04 | 44 | 1015.5 |
| 20260508013032 | 60 | 87 | 1.0 | 8.0 | 0.00 | 0.04 | 0.04 | 44 | 1015.5 |
| 20260508012932 | 60 | 113 | 1.0 | 6.0 | 0.00 | 0.04 | 0.04 | 41 | 1015.5 |
| 20260508012839 | 60 | 116 | 0.0 | 3.0 | 0.00 | 0.04 | 0.04 | 40 | 1015.5 |
| 20260508012632 | 60 | 175 | 0.0 | 2.0 | 0.00 | 0.04 | 0.04 | 39 | 1015.4 |
| 20260508012536 | 60 | 175 | 0.0 | 1.0 | 0.00 | 0.04 | 0.04 | 39 | 1015.4 |
| 20260508012531 | 60 | 175 | 0.0 | 1.0 | 0.00 | 0.04 | 0.04 | 38 | 1015.4 |
| 20260508012432 | 60 | 175 | 0.0 | 1.0 | 0.00 | 0.04 | 0.04 | 38 | 1015.4 |
| 20260508012332 | 60 | 175 | 0.0 | 1.0 | 0.00 | 0.04 | 0.04 | 38 | 1015.4 |
| 20260508012231 | 60 | 175 | 0.0 | 1.0 | 0.00 | 0.04 | 0.04 | 39 | 1015.4 |
| 20260508012130 | 60 | 175 | 0.0 | 2.0 | 0.00 | 0.04 | 0.04 | 38 | 1015.3 |
| 20260508012036 | 60 | 175 | 0.0 | 2.0 | 0.00 | 0.04 | 0.04 | 38 | 1015.3 |
| 20260508012030 | 61 | 175 | 0.0 | 2.0 | 0.00 | 0.04 | 0.04 | 38 | 1015.3 |
| 20260508011931 | 61 | 175 | 0.0 | 2.0 | 0.00 | 0.04 | 0.04 | 38 | 1015.3 |
| 20260508011829 | 61 | 175 | 0.0 | 2.0 | 0.00 | 0.04 | 0.04 | 38 | 1015.3 |
| 20260508011735 | 61 | 329 | 1.0 | 2.0 | 0.00 | 0.04 | 0.04 | 38 | 1015.2 |
| 20260508011534 | 61 | 340 | 1.0 | 2.0 | 0.00 | 0.04 | 0.04 | 37 | 1015.2 |
| 20260508011329 | 61 | 338 | 1.0 | 2.0 | 0.00 | 0.04 | 0.04 | 37 | 1015.2 |
| 20260508011227 | 61 | 315 | 1.0 | 2.0 | 0.00 | 0.04 | 0.04 | 36 | 1015.2 |
| 20260508011153 | 61 | 129 | 1.0 | 3.0 | 0.00 | 0.04 | 0.04 | 36 | 1015.2 |
| 20260508011041 | 61 | 129 | 1.0 | 3.0 | 0.00 | 0.04 | 0.04 | 36 | 1015.1 |
| 20260508010727 | 62 | 129 | 1.0 | 3.0 | 0.00 | 0.04 | 0.04 | 36 | 1015.2 |
| 20260508010627 | 62 | 129 | 1.0 | 3.0 | 0.00 | 0.04 | 0.04 | 36 | 1015.2 |
| 20260508010527 | 62 | 129 | 1.0 | 3.0 | 0.00 | 0.04 | 0.04 | 36 | 1015.2 |
| 20260508010428 | 62 | 129 | 1.0 | 3.0 | 0.00 | 0.04 | 0.04 | 36 | 1015.1 |
| 20260508010327 | 62 | 129 | 1.0 | 3.0 | 0.00 | 0.04 | 0.04 | 36 | 1015.2 |
| 20260508010228 | 62 | 129 | 1.0 | 3.0 | 0.00 | 0.04 | 0.04 | 36 | 1015.1 |
| 20260508010128 | 62 | 129 | 1.0 | 3.0 | 0.00 | 0.04 | 0.04 | 36 | 1015.1 |
| 20260508010023 | 62 | 129 | 1.0 | 3.0 | 0.00 | 0.04 | 0.04 | 36 | 1014.9 |
| 20260508005923 | 62 | 129 | 1.0 | 4.0 | 0.00 | 0.04 | 0.04 | 36 | 1015.1 |